Wetterdaten: Montag, 25.09.2017
Datum Zeit Temp. Aussen Temp. o. S. +5cm Feuchte Auss BlattFeu 1 Luftdruck Regen Sonnenschein Regendauer Solar Windben Empfang
25.09.2017 00:00 12,6 C 11,7 C 10,0 C 92 % 1 lf 1021,7 hPa 0,0 l/m 0 min 0 min 0 W/m 2,1 km/h (1 Bft) 92,11 %
25.09.2017 00:02 12,6 C 11,7 C 10,0 C 92 % 1 lf 1021,7 hPa 0,0 l/m 0 min 0 min 0 W/m 2,1 km/h (1 Bft) 94,74 %
25.09.2017 00:04 12,6 C 11,7 C 10,0 C 92 % 1 lf 1021,6 hPa 0,0 l/m 0 min 0 min 0 W/m 2,1 km/h (1 Bft) 93,62 %
25.09.2017 00:08 12,6 C 11,1 C 9,4 C 92 % 1 lf 1021,6 hPa 0,0 l/m 0 min 0 min 0 W/m 2,1 km/h (1 Bft) 91,40 %
25.09.2017 00:10 12,6 C 11,1 C 9,4 C 92 % 1 lf 1021,6 hPa 0,0 l/m 0 min 0 min 0 W/m 0,0 km/h (0 Bft) 91,49 %
25.09.2017 00:12 12,5 C 11,1 C 9,4 C 92 % 1 lf 1021,7 hPa 0,0 l/m 0 min 0 min 0 W/m 0,0 km/h (0 Bft) 90,91 %
25.09.2017 00:14 12,5 C 11,1 C 9,4 C 92 % 1 lf 1021,6 hPa 0,0 l/m 0 min 0 min 0 W/m 0,0 km/h (0 Bft) 94,74 %
25.09.2017 00:16 12,5 C 11,1 C 9,4 C 92 % 1 lf 1021,6 hPa 0,0 l/m 0 min 0 min 2 W/m 0,0 km/h (0 Bft) 91,67 %
25.09.2017 00:18 12,5 C 11,1 C 9,4 C 92 % 1 lf 1021,6 hPa 0,0 l/m 0 min 0 min 0 W/m 0,0 km/h (0 Bft) 95,65 %
25.09.2017 00:20 12,4 C 11,1 C 9,4 C 92 % 1 lf 1021,6 hPa 0,0 l/m 0 min 0 min 0 W/m 0,0 km/h (0 Bft) 94,64 %
25.09.2017 00:22 12,4 C 10,6 C 9,4 C 92 % 1 lf 1021,6 hPa 0,0 l/m 0 min 0 min 0 W/m 0,0 km/h (0 Bft) 89,47 %
25.09.2017 00:24 12,4 C 10,6 C 9,4 C 92 % 1 lf 1021,5 hPa 0,0 l/m 0 min 0 min 0 W/m 0,0 km/h (0 Bft) 93,62 %
25.09.2017 00:26 12,4 C 10,6 C 9,4 C 92 % 2 lf 1021,5 hPa 0,0 l/m 0 min 0 min 0 W/m 0,0 km/h (0 Bft) 91,49 %
25.09.2017 00:28 12,4 C 10,6 C 9,4 C 91 % 2 lf 1021,5 hPa 0,0 l/m 0 min 0 min 0 W/m 0,0 km/h (0 Bft) 87,27 %
25.09.2017 00:30 12,3 C 11,1 C 9,4 C 91 % 2 lf 1021,5 hPa 0,0 l/m 0 min 0 min 0 W/m 0,0 km/h (0 Bft) 92,11 %
25.09.2017 00:32 12,3 C 10,6 C 9,4 C 91 % 2 lf 1021,4 hPa 0,0 l/m 0 min 0 min 0 W/m 0,0 km/h (0 Bft) 87,23 %
25.09.2017 00:34 12,3 C 11,1 C 9,4 C 91 % 2 lf 1021,4 hPa 0,0 l/m 0 min 0 min 0 W/m 0,0 km/h (0 Bft) 93,62 %
25.09.2017 00:36 12,2 C 10,6 C 9,4 C 91 % 2 lf 1021,4 hPa 0,0 l/m 0 min 0 min 0 W/m 0,0 km/h (0 Bft) 93,62 %
25.09.2017 00:38 12,2 C 10,6 C 9,4 C 91 % 2 lf 1021,3 hPa 0,0 l/m 0 min 0 min 0 W/m 0,0 km/h (0 Bft) 94,55 %
25.09.2017 00:40 12,2 C 10,6 C 8,9 C 91 % 2 lf 1021,4 hPa 0,0 l/m 0 min 0 min 0 W/m 0,0 km/h (0 Bft) 92,11 %
25.09.2017 00:42 12,2 C 10,6 C 8,9 C 91 % 2 lf 1021,3 hPa 0,0 l/m 0 min 0 min 5 W/m 0,0 km/h (0 Bft) 91,49 %
25.09.2017 00:44 12,2 C 10,6 C 8,9 C 91 % 3 lf 1021,3 hPa 0,0 l/m 0 min 0 min 5 W/m 0,0 km/h (0 Bft) 93,62 %
25.09.2017 00:46 12,1 C 10,6 C 8,9 C 91 % 3 lf 1021,3 hPa 0,0 l/m 0 min 0 min 5 W/m 0,0 km/h (0 Bft) 89,36 %
25.09.2017 00:48 12,1 C 10,6 C 8,9 C 91 % 3 lf 1021,3 hPa 0,0 l/m 0 min 0 min 1 W/m 0,0 km/h (0 Bft) 94,55 %
25.09.2017 00:50 12,1 C 10,6 C 8,9 C 91 % 3 lf 1021,3 hPa 0,0 l/m 0 min 0 min 0 W/m 0,0 km/h (0 Bft) 91,49 %
25.09.2017 00:52 12,1 C 10,6 C 8,9 C 91 % 3 lf 1021,3 hPa 0,0 l/m 0 min 0 min 0 W/m 0,0 km/h (0 Bft) 93,62 %
25.09.2017 00:54 12,0 C 10,6 C 8,9 C 91 % 3 lf 1021,2 hPa 0,0 l/m 0 min 0 min 0 W/m 0,0 km/h (0 Bft) 97,37 %
25.09.2017 00:56 11,9 C 10,6 C 8,9 C 91 % 3 lf 1021,2 hPa 0,0 l/m 0 min 0 min 0 W/m 0,0 km/h (0 Bft) 95,74 %
25.09.2017 00:58 11,9 C 10,0 C 8,9 C 91 % 3 lf 1021,2 hPa 0,0 l/m 0 min 0 min 0 W/m 0,0 km/h (0 Bft) 93,62 %
25.09.2017 01:00 11,9 C 10,0 C 8,9 C 91 % 3 lf 1021,3 hPa 0,0 l/m 0 min 0 min 0 W/m 0,0 km/h (0 Bft) 95,74 %
25.09.2017 01:02 11,9 C 10,0 C 8,9 C 91 % 3 lf 1021,2 hPa 0,0 l/m 0 min 0 min 0 W/m 0,0 km/h (0 Bft) 89,36 %
25.09.2017 01:04 11,9 C 10,0 C 8,9 C 91 % 3 lf 1021,3 hPa 0,0 l/m 0 min 0 min 0 W/m 0,0 km/h (0 Bft) 96,36 %
25.09.2017 01:06 11,8 C 10,0 C 8,9 C 91 % 4 lf 1021,2 hPa 0,0 l/m 0 min 0 min 0 W/m 0,0 km/h (0 Bft) 94,74 %
25.09.2017 01:08 11,8 C 10,0 C 8,9 C 91 % 4 lf 1021,2 hPa 0,0 l/m 0 min 0 min 0 W/m 0,0 km/h (0 Bft) 95,74 %
25.09.2017 01:10 11,8 C 10,0 C 8,9 C 91 % 4 lf 1021,2 hPa 0,0 l/m 0 min 0 min 0 W/m 0,0 km/h (0 Bft) 95,74 %
25.09.2017 01:12 11,7 C 10,0 C 8,9 C 91 % 4 lf 1021,2 hPa 0,0 l/m 0 min 0 min 0 W/m 0,0 km/h (0 Bft) 98,18 %
25.09.2017 01:14 11,7 C 10,0 C 8,9 C 91 % 4 lf 1021,2 hPa 0,0 l/m 0 min 0 min 0 W/m 0,0 km/h (0 Bft) 100,00 %
25.09.2017 01:16 11,7 C 10,0 C 8,9 C 91 % 4 lf 1021,1 hPa 0,0 l/m 0 min 0 min 0 W/m 0,0 km/h (0 Bft) 100,00 %
25.09.2017 01:18 11,7 C 10,0 C 8,9 C 91 % 4 lf 1021,1 hPa 0,0 l/m 0 min 0 min 0 W/m 0,0 km/h (0 Bft) 97,87 %
25.09.2017 01:20 11,6 C 10,0 C 8,9 C 91 % 5 lf 1021,0 hPa 0,0 l/m 0 min 0 min 0 W/m 0,0 km/h (0 Bft) 100,00 %
25.09.2017 01:22 11,6 C 10,0 C 8,9 C 91 % 5 lf 1021,0 hPa 0,0 l/m 0 min 0 min 0 W/m 0,0 km/h (0 Bft) 97,37 %
25.09.2017 01:24 11,6 C 10,0 C 8,9 C 91 % 6 lf 1020,9 hPa 0,0 l/m 0 min 0 min 0 W/m 0,0 km/h (0 Bft) 100,00 %
25.09.2017 01:26 11,5 C 10,0 C 8,3 C 91 % 7 lf 1021,0 hPa 0,0 l/m 0 min 0 min 0 W/m 0,0 km/h (0 Bft) 100,00 %
25.09.2017 01:28 11,5 C 10,0 C 8,3 C 91 % 7 lf 1020,9 hPa 0,0 l/m 0 min 0 min 0 W/m 0,0 km/h (0 Bft) 100,00 %
25.09.2017 01:30 11,4 C 10,0 C 8,3 C 91 % 8 lf 1020,9 hPa 0,0 l/m 0 min 0 min 0 W/m 0,0 km/h (0 Bft) 97,37 %
25.09.2017 01:32 11,4 C 10,0 C 8,3 C 91 % 8 lf 1020,9 hPa 0,0 l/m 0 min 0 min 0 W/m 0,0 km/h (0 Bft) 100,00 %
25.09.2017 01:34 11,4 C 9,4 C 8,3 C 91 % 9 lf 1020,8 hPa 0,0 l/m 0 min 0 min 0 W/m 0,0 km/h (0 Bft) 100,00 %
25.09.2017 01:36 11,3 C 10,0 C 8,3 C 91 % 9 lf 1020,9 hPa 0,0 l/m 0 min 0 min 0 W/m 0,0 km/h (0 Bft) 100,00 %
25.09.2017 01:38 11,3 C 9,4 C 8,3 C 91 % 9 lf 1020,8 hPa 0,0 l/m 0 min 0 min 0 W/m 0,0 km/h (0 Bft) 94,55 %
25.09.2017 01:40 11,3 C 9,4 C 8,3 C 91 % 10 lf 1020,8 hPa 0,0 l/m 0 min 0 min 0 W/m 0,0 km/h (0 Bft) 100,00 %
25.09.2017 01:42 11,3 C 9,4 C 8,3 C 91 % 10 lf 1020,9 hPa 0,0 l/m 0 min 0 min 0 W/m 0,0 km/h (0 Bft) 97,87 %
25.09.2017 01:44 11,3 C 9,4 C 8,3 C 91 % 10 lf 1020,9 hPa 0,0 l/m 0 min 0 min 0 W/m 0,0 km/h (0 Bft) 97,87 %
25.09.2017 01:46 11,2 C 9,4 C 8,3 C 91 % 11 lf 1020,9 hPa 0,0 l/m 0 min 0 min 0 W/m 0,0 km/h (0 Bft) 100,00 %
25.09.2017 01:48 11,2 C 9,4 C 8,3 C 91 % 11 lf 1020,8 hPa 0,0 l/m 0 min 0 min 0 W/m 0,0 km/h (0 Bft) 100,00 %
25.09.2017 01:50 11,2 C 10,0 C 8,3 C 91 % 11 lf 1020,8 hPa 0,0 l/m 0 min 0 min 0 W/m 0,0 km/h (0 Bft) 100,00 %
25.09.2017 01:52 11,2 C 10,0 C 8,3 C 91 % 12 lf 1020,8 hPa 0,0 l/m 0 min 0 min 0 W/m 0,0 km/h (0 Bft) 100,00 %
25.09.2017 01:54 11,2 C 9,4 C 8,3 C 91 % 12 lf 1020,8 hPa 0,0 l/m 0 min 0 min 0 W/m 0,0 km/h (0 Bft) 96,36 %
25.09.2017 01:56 11,1 C 9,4 C 8,3 C 91 % 12 lf 1020,8 hPa 0,0 l/m 0 min 0 min 0 W/m 0,0 km/h (0 Bft) 100,00 %
25.09.2017 01:58 11,1 C 9,4 C 8,3 C 91 % 13 lf 1020,9 hPa 0,0 l/m 0 min 0 min 0 W/m 0,0 km/h (0 Bft) 100,00 %
25.09.2017 02:00 11,1 C 9,4 C 8,3 C 91 % 13 lf 1020,9 hPa 0,0 l/m 0 min 0 min 0 W/m 0,0 km/h (0 Bft) 100,00 %
25.09.2017 02:02 11,1 C 9,4 C 8,3 C 91 % 13 lf 1020,9 hPa 0,0 l/m 0 min 0 min 0 W/m 6,3 km/h (2 Bft) 98,18 %
25.09.2017 02:04 11,1 C 9,4 C 8,3 C 91 % 13 lf 1020,9 hPa 0,0 l/m 0 min 0 min 0 W/m 4,2 km/h (1 Bft) 100,00 %
25.09.2017 02:06 11,1 C 9,4 C 8,3 C 92 % 13 lf 1020,9 hPa 0,0 l/m 0 min 0 min 0 W/m 6,3 km/h (2 Bft) 97,87 %
25.09.2017 02:08 11,0 C 9,4 C 8,3 C 92 % 14 lf 1020,9 hPa 0,0 l/m 0 min 0 min 0 W/m 6,3 km/h (2 Bft) 100,00 %
25.09.2017 02:10 11,0 C 9,4 C 8,3 C 92 % 14 lf 1020,9 hPa 0,0 l/m 0 min 0 min 0 W/m 6,3 km/h (2 Bft) 96,36 %
25.09.2017 02:12 11,0 C 9,4 C 8,3 C 92 % 14 lf 1020,9 hPa 0,0 l/m 0 min 0 min 0 W/m 6,3 km/h (2 Bft) 97,87 %
25.09.2017 02:14 11,0 C 9,4 C 8,3 C 92 % 14 lf 1020,9 hPa 0,0 l/m 0 min 0 min 0 W/m 6,3 km/h (2 Bft) 100,00 %
25.09.2017 02:16 10,9 C 9,4 C 8,3 C 92 % 14 lf 1020,9 hPa 0,0 l/m 0 min 0 min 0 W/m 4,2 km/h (1 Bft) 97,87 %
25.09.2017 02:18 10,9 C 9,4 C 8,3 C 92 % 14 lf 1020,9 hPa 0,0 l/m 0 min 0 min 0 W/m 2,1 km/h (1 Bft) 95,74 %
25.09.2017 02:20 10,9 C 9,4 C 8,3 C 92 % 15 lf 1020,9 hPa 0,0 l/m 0 min 0 min 0 W/m 0,0 km/h (0 Bft) 89,09 %
25.09.2017 02:22 10,9 C 9,4 C 8,3 C 92 % 14 lf 1020,9 hPa 0,0 l/m 0 min 0 min 0 W/m 2,1 km/h (1 Bft) 91,49 %
25.09.2017 02:24 10,9 C 9,4 C 8,3 C 92 % 15 lf 1020,9 hPa 0,0 l/m 0 min 0 min 0 W/m 2,1 km/h (1 Bft) 93,62 %
25.09.2017 02:26 10,9 C 9,4 C 8,3 C 92 % 15 lf 1020,9 hPa 0,0 l/m 0 min 0 min 0 W/m 2,1 km/h (1 Bft) 95,74 %
25.09.2017 02:28 10,9 C 9,4 C 8,3 C 92 % 15 lf 1020,9 hPa 0,0 l/m 0 min 0 min 0 W/m 0,0 km/h (0 Bft) 91,49 %
25.09.2017 02:30 10,9 C 9,4 C 8,3 C 92 % 15 lf 1020,9 hPa 0,0 l/m 0 min 0 min 0 W/m 2,1 km/h (1 Bft) 92,11 %
25.09.2017 02:32 10,9 C 9,4 C 8,3 C 92 % 15 lf 1020,8 hPa 0,0 l/m 0 min 0 min 0 W/m 0,0 km/h (0 Bft) 93,62 %
25.09.2017 02:34 10,9 C 9,4 C 8,3 C 92 % 15 lf 1020,8 hPa 0,0 l/m 0 min 0 min 0 W/m 0,0 km/h (0 Bft) 93,62 %
25.09.2017 02:36 10,8 C 9,4 C 8,3 C 92 % 15 lf 1020,8 hPa 0,0 l/m 0 min 0 min 0 W/m 0,0 km/h (0 Bft) 90,91 %
25.09.2017 02:38 10,8 C 9,4 C 8,3 C 92 % 15 lf 1020,8 hPa 0,0 l/m 0 min 0 min 0 W/m 0,0 km/h (0 Bft) 94,74 %
25.09.2017 02:40 10,8 C 9,4 C 8,3 C 92 % 15 lf 1020,8 hPa 0,0 l/m 0 min 0 min 0 W/m 0,0 km/h (0 Bft) 95,74 %
25.09.2017 02:42 10,8 C 9,4 C 8,3 C 92 % 15 lf 1020,8 hPa 0,0 l/m 0 min 0 min 0 W/m 0,0 km/h (0 Bft) 95,74 %
25.09.2017 02:44 10,8 C 8,9 C 8,3 C 92 % 15 lf 1020,7 hPa 0,0 l/m 0 min 0 min 0 W/m 0,0 km/h (0 Bft) 94,55 %
25.09.2017 02:46 10,8 C 9,4 C 8,3 C 92 % 15 lf 1020,7 hPa 0,0 l/m 0 min 0 min 0 W/m 0,0 km/h (0 Bft) 89,47 %
25.09.2017 02:48 10,8 C 9,4 C 8,3 C 93 % 15 lf 1020,7 hPa 0,0 l/m 0 min 0 min 0 W/m 0,0 km/h (0 Bft) 95,83 %
25.09.2017 02:50 10,8 C 9,4 C 8,3 C 93 % 15 lf 1020,7 hPa 0,0 l/m 0 min 0 min 0 W/m 4,2 km/h (1 Bft) 91,30 %
25.09.2017 02:52 10,8 C 9,4 C 8,3 C 93 % 15 lf 1020,8 hPa 0,0 l/m 0 min 0 min 0 W/m 4,2 km/h (1 Bft) 95,74 %
25.09.2017 02:54 10,7 C 9,4 C 8,3 C 93 % 15 lf 1020,8 hPa 0,0 l/m 0 min 0 min 0 W/m 4,2 km/h (1 Bft) 97,87 %
25.09.2017 02:56 10,7 C 8,9 C 8,3 C 93 % 15 lf 1020,7 hPa 0,0 l/m 0 min 0 min 0 W/m 2,1 km/h (1 Bft) 92,73 %
25.09.2017 02:58 10,7 C 8,9 C 7,8 C 93 % 15 lf 1020,7 hPa 0,0 l/m 0 min 0 min 0 W/m 0,0 km/h (0 Bft) 93,62 %
25.09.2017 03:00 10,7 C 8,9 C 7,8 C 93 % 15 lf 1020,7 hPa 0,0 l/m 0 min 0 min 0 W/m 0,0 km/h (0 Bft) 93,62 %
25.09.2017 03:02 10,7 C 8,9 C 7,8 C 93 % 15 lf 1020,8 hPa 0,0 l/m 0 min 0 min 0 W/m 0,0 km/h (0 Bft) 94,74 %
25.09.2017 03:04 10,6 C 8,9 C 7,8 C 93 % 15 lf 1020,7 hPa 0,0 l/m 0 min 0 min 0 W/m 0,0 km/h (0 Bft) 93,62 %
25.09.2017 03:06 10,6 C 8,9 C 7,8 C 93 % 15 lf 1020,7 hPa 0,0 l/m 0 min 0 min 0 W/m 0,0 km/h (0 Bft) 91,49 %
25.09.2017 03:08 10,6 C 8,9 C 7,8 C 93 % 15 lf 1020,8 hPa 0,0 l/m 0 min 0 min 0 W/m 0,0 km/h (0 Bft) 89,09 %
25.09.2017 03:10 10,6 C 8,9 C 7,8 C 93 % 15 lf 1020,8 hPa 0,0 l/m 0 min 0 min 0 W/m 0,0 km/h (0 Bft) 91,49 %
25.09.2017 03:12 10,6 C 8,9 C 7,8 C 93 % 15 lf 1020,8 hPa 0,0 l/m 0 min 0 min 0 W/m 0,0 km/h (0 Bft) 95,74 %
25.09.2017 03:14 10,6 C 8,9 C 7,8 C 93 % 15 lf 1020,8 hPa 0,0 l/m 0 min 0 min 0 W/m 0,0 km/h (0 Bft) 93,62 %
25.09.2017 03:16 10,6 C 8,9 C 7,8 C 93 % 15 lf 1020,8 hPa 0,0 l/m 0 min 0 min 0 W/m 0,0 km/h (0 Bft) 95,65 %
25.09.2017 03:18 10,5 C 8,9 C 7,8 C 93 % 15 lf 1020,8 hPa 0,0 l/m 0 min 0 min 0 W/m 0,0 km/h (0 Bft) 92,31 %
25.09.2017 03:20 10,5 C 8,9 C 7,8 C 93 % 15 lf 1020,7 hPa 0,0 l/m 0 min 0 min 0 W/m 0,0 km/h (0 Bft) 89,36 %
25.09.2017 03:22 10,5 C 8,9 C 7,8 C 93 % 15 lf 1020,8 hPa 0,0 l/m 0 min 0 min 0 W/m 0,0 km/h (0 Bft) 91,49 %
25.09.2017 03:24 10,4 C 8,9 C 7,8 C 93 % 15 lf 1020,8 hPa 0,0 l/m 0 min 0 min 0 W/m 0,0 km/h (0 Bft) 94,55 %
25.09.2017 03:26 10,4 C 8,3 C 7,8 C 93 % 15 lf 1020,7 hPa 0,0 l/m 0 min 0 min 0 W/m 0,0 km/h (0 Bft) 92,11 %
25.09.2017 03:28 10,4 C 8,3 C 7,8 C 93 % 15 lf 1020,8 hPa 0,0 l/m 0 min 0 min 0 W/m 0,0 km/h (0 Bft) 87,23 %
25.09.2017 03:30 10,4 C 8,3 C 7,8 C 93 % 15 lf 1020,7 hPa 0,0 l/m 0 min 0 min 0 W/m 0,0 km/h (0 Bft) 93,62 %
25.09.2017 03:32 10,4 C 8,3 C 7,8 C 93 % 15 lf 1020,7 hPa 0,0 l/m 0 min 0 min 0 W/m 0,0 km/h (0 Bft) 94,55 %
25.09.2017 03:34 10,3 C 8,3 C 7,8 C 93 % 15 lf 1020,7 hPa 0,0 l/m 0 min 0 min 0 W/m 0,0 km/h (0 Bft) 94,74 %
25.09.2017 03:36 10,3 C 8,3 C 7,8 C 93 % 15 lf 1020,7 hPa 0,0 l/m 0 min 0 min 0 W/m 0,0 km/h (0 Bft) 95,74 %
25.09.2017 03:38 10,3 C 8,3 C 7,8 C 93 % 15 lf 1020,7 hPa 0,0 l/m 0 min 0 min 0 W/m 0,0 km/h (0 Bft) 95,74 %
25.09.2017 03:40 10,3 C 8,3 C 7,8 C 93 % 15 lf 1020,6 hPa 0,0 l/m 0 min 0 min 0 W/m 0,0 km/h (0 Bft) 95,74 %
25.09.2017 03:42 10,2 C 8,3 C 7,8 C 93 % 15 lf 1020,6 hPa 0,0 l/m 0 min 0 min 0 W/m 0,0 km/h (0 Bft) 91,49 %
25.09.2017 03:44 10,2 C 8,3 C 7,8 C 93 % 15 lf 1020,7 hPa 0,0 l/m 0 min 0 min 0 W/m 0,0 km/h (0 Bft) 90,91 %
25.09.2017 03:46 10,2 C 8,3 C 7,8 C 93 % 15 lf 1020,7 hPa 0,0 l/m 0 min 0 min 0 W/m 0,0 km/h (0 Bft) 94,74 %
25.09.2017 03:48 10,2 C 8,3 C 7,8 C 93 % 15 lf 1020,7 hPa 0,0 l/m 0 min 0 min 0 W/m 0,0 km/h (0 Bft) 93,62 %
25.09.2017 03:50 10,1 C 8,9 C 7,8 C 93 % 15 lf 1020,6 hPa 0,0 l/m 0 min 0 min 0 W/m 0,0 km/h (0 Bft) 95,74 %
25.09.2017 03:52 10,1 C 8,3 C 7,8 C 93 % 15 lf 1020,7 hPa 0,0 l/m 0 min 0 min 0 W/m 0,0 km/h (0 Bft) 97,87 %
25.09.2017 03:54 10,1 C 8,3 C 7,8 C 93 % 15 lf 1020,6 hPa 0,0 l/m 0 min 0 min 0 W/m 0,0 km/h (0 Bft) 96,36 %
25.09.2017 03:56 10,1 C 8,3 C 7,8 C 93 % 15 lf 1020,6 hPa 0,0 l/m 0 min 0 min 0 W/m 0,0 km/h (0 Bft) 92,11 %
25.09.2017 03:58 10,0 C 8,9 C 7,8 C 93 % 15 lf 1020,6 hPa 0,0 l/m 0 min 0 min 0 W/m 0,0 km/h (0 Bft) 93,75 %
25.09.2017 04:00 10,0 C 8,9 C 7,8 C 93 % 15 lf 1020,6 hPa 0,0 l/m 0 min 0 min 0 W/m 6,3 km/h (2 Bft) 97,83 %
25.09.2017 04:02 10,0 C 8,9 C 7,8 C 93 % 15 lf 1020,6 hPa 0,0 l/m 0 min 0 min 0 W/m 4,2 km/h (1 Bft) 90,91 %
25.09.2017 04:04 9,9 C 9,4 C 7,8 C 93 % 15 lf 1020,6 hPa 0,0 l/m 0 min 0 min 0 W/m 6,3 km/h (2 Bft) 97,37 %
25.09.2017 04:06 9,9 C 9,4 C 7,8 C 93 % 15 lf 1020,6 hPa 0,0 l/m 0 min 0 min 0 W/m 8,4 km/h (2 Bft) 93,62 %
25.09.2017 04:08 9,9 C 9,4 C 7,8 C 93 % 15 lf 1020,5 hPa 0,0 l/m 0 min 0 min 0 W/m 6,3 km/h (2 Bft) 93,62 %
25.09.2017 04:10 9,9 C 9,4 C 7,8 C 93 % 15 lf 1020,6 hPa 0,0 l/m 0 min 0 min 0 W/m 6,3 km/h (2 Bft) 92,73 %
25.09.2017 04:12 9,9 C 9,4 C 7,8 C 93 % 15 lf 1020,5 hPa 0,0 l/m 0 min 0 min 0 W/m 4,2 km/h (1 Bft) 86,84 %
25.09.2017 04:14 9,9 C 9,4 C 7,8 C 93 % 15 lf 1020,6 hPa 0,0 l/m 0 min 0 min 0 W/m 4,2 km/h (1 Bft) 93,62 %
25.09.2017 04:16 9,9 C 9,4 C 7,8 C 93 % 15 lf 1020,6 hPa 0,0 l/m 0 min 0 min 0 W/m 0,0 km/h (0 Bft) 93,62 %
25.09.2017 04:18 9,9 C 9,4 C 7,8 C 93 % 15 lf 1020,5 hPa 0,0 l/m 0 min 0 min 0 W/m 2,1 km/h (1 Bft) 89,36 %
25.09.2017 04:20 10,0 C 8,9 C 7,8 C 94 % 15 lf 1020,5 hPa 0,0 l/m 0 min 0 min 0 W/m 4,2 km/h (1 Bft) 93,62 %
25.09.2017 04:22 10,0 C 9,4 C 7,8 C 94 % 15 lf 1020,5 hPa 0,0 l/m 0 min 0 min 0 W/m 2,1 km/h (1 Bft) 91,30 %
25.09.2017 04:24 10,0 C 9,4 C 7,8 C 94 % 15 lf 1020,5 hPa 0,0 l/m 0 min 0 min 0 W/m 2,1 km/h (1 Bft) 91,49 %
25.09.2017 04:26 10,0 C 9,4 C 7,8 C 94 % 15 lf 1020,5 hPa 0,0 l/m 0 min 0 min 0 W/m 2,1 km/h (1 Bft) 89,29 %
25.09.2017 04:28 10,0 C 9,4 C 7,8 C 94 % 15 lf 1020,4 hPa 0,0 l/m 0 min 0 min 0 W/m 2,1 km/h (1 Bft) 93,48 %
25.09.2017 04:30 10,1 C 8,9 C 7,8 C 94 % 15 lf 1020,5 hPa 0,0 l/m 0 min 0 min 0 W/m 4,2 km/h (1 Bft) 91,49 %
25.09.2017 04:32 10,1 C 8,9 C 7,8 C 94 % 15 lf 1020,5 hPa 0,0 l/m 0 min 0 min 0 W/m 2,1 km/h (1 Bft) 86,84 %
25.09.2017 04:34 10,1 C 8,9 C 7,8 C 94 % 15 lf 1020,5 hPa 0,0 l/m 0 min 0 min 0 W/m 2,1 km/h (1 Bft) 91,49 %
25.09.2017 04:36 10,1 C 8,9 C 7,8 C 94 % 15 lf 1020,4 hPa 0,0 l/m 0 min 0 min 0 W/m 4,2 km/h (1 Bft) 89,36 %
25.09.2017 04:38 10,1 C 9,4 C 7,8 C 94 % 15 lf 1020,5 hPa 0,0 l/m 0 min 0 min 0 W/m 2,1 km/h (1 Bft) 93,62 %
25.09.2017 04:40 10,1 C 9,4 C 7,8 C 94 % 15 lf 1020,5 hPa 0,0 l/m 0 min 0 min 0 W/m 4,2 km/h (1 Bft) 94,55 %
25.09.2017 04:42 10,1 C 9,4 C 7,8 C 94 % 15 lf 1020,4 hPa 0,0 l/m 0 min 0 min 0 W/m 4,2 km/h (1 Bft) 100,00 %
25.09.2017 04:44 10,1 C 8,9 C 7,8 C 94 % 15 lf 1020,4 hPa 0,0 l/m 0 min 0 min 0 W/m 2,1 km/h (1 Bft) 87,50 %
25.09.2017 04:46 10,1 C 9,4 C 7,8 C 94 % 15 lf 1020,4 hPa 0,0 l/m 0 min 0 min 0 W/m 4,2 km/h (1 Bft) 95,65 %
25.09.2017 04:48 10,1 C 9,4 C 7,8 C 94 % 15 lf 1020,4 hPa 0,0 l/m 0 min 0 min 0 W/m 4,2 km/h (1 Bft) 93,62 %
25.09.2017 04:50 10,1 C 8,9 C 7,8 C 94 % 15 lf 1020,4 hPa 0,0 l/m 0 min 0 min 0 W/m 4,2 km/h (1 Bft) 93,62 %
25.09.2017 04:52 10,1 C 8,9 C 7,8 C 94 % 15 lf 1020,4 hPa 0,0 l/m 0 min 0 min 0 W/m 2,1 km/h (1 Bft) 95,74 %
25.09.2017 04:54 10,1 C 8,9 C 7,8 C 94 % 15 lf 1020,4 hPa 0,0 l/m 0 min 0 min 0 W/m 2,1 km/h (1 Bft) 96,36 %
25.09.2017 04:56 10,0 C 8,9 C 7,2 C 94 % 15 lf 1020,3 hPa 0,0 l/m 0 min 0 min 0 W/m 2,1 km/h (1 Bft) 93,62 %
25.09.2017 04:58 10,0 C 8,9 C 7,8 C 94 % 15 lf 1020,3 hPa 0,0 l/m 0 min 0 min 0 W/m 0,0 km/h (0 Bft) 92,11 %
25.09.2017 05:00 10,0 C 8,9 C 7,8 C 94 % 15 lf 1020,4 hPa 0,0 l/m 0 min 0 min 0 W/m 2,1 km/h (1 Bft) 95,74 %
25.09.2017 05:02 10,0 C 8,9 C 7,8 C 94 % 15 lf 1020,4 hPa 0,0 l/m 0 min 0 min 0 W/m 2,1 km/h (1 Bft) 95,74 %
25.09.2017 05:04 10,0 C 8,9 C 7,2 C 94 % 15 lf 1020,3 hPa 0,0 l/m 0 min 0 min 0 W/m 0,0 km/h (0 Bft) 94,55 %
25.09.2017 05:06 10,0 C 8,9 C 7,2 C 94 % 15 lf 1020,3 hPa 0,0 l/m 0 min 0 min 0 W/m 0,0 km/h (0 Bft) 97,37 %
25.09.2017 05:08 10,0 C 8,3 C 7,2 C 94 % 15 lf 1020,3 hPa 0,0 l/m 0 min 0 min 0 W/m 0,0 km/h (0 Bft) 95,83 %
25.09.2017 05:10 10,0 C 8,3 C 7,2 C 94 % 15 lf 1020,3 hPa 0,0 l/m 0 min 0 min 0 W/m 0,0 km/h (0 Bft) 93,48 %
25.09.2017 05:12 9,9 C 8,3 C 7,2 C 94 % 15 lf 1020,4 hPa 0,0 l/m 0 min 0 min 0 W/m 0,0 km/h (0 Bft) 93,62 %
25.09.2017 05:14 9,9 C 8,3 C 7,2 C 95 % 15 lf 1020,4 hPa 0,0 l/m 0 min 0 min 0 W/m 0,0 km/h (0 Bft) 94,55 %
25.09.2017 05:16 9,9 C 8,3 C 7,2 C 95 % 15 lf 1020,4 hPa 0,0 l/m 0 min 0 min 0 W/m 0,0 km/h (0 Bft) 97,37 %
25.09.2017 05:18 9,9 C 8,9 C 7,2 C 95 % 15 lf 1020,3 hPa 0,0 l/m 0 min 0 min 0 W/m 0,0 km/h (0 Bft) 91,67 %
25.09.2017 05:20 9,9 C 8,3 C 7,2 C 95 % 15 lf 1020,3 hPa 0,0 l/m 0 min 0 min 0 W/m 0,0 km/h (0 Bft) 95,74 %
25.09.2017 05:22 9,9 C 8,3 C 7,2 C 94 % 15 lf 1020,3 hPa 0,0 l/m 0 min 0 min 0 W/m 0,0 km/h (0 Bft) 97,83 %
25.09.2017 05:24 9,9 C 8,3 C 7,2 C 94 % 15 lf 1020,3 hPa 0,0 l/m 0 min 0 min 0 W/m 4,2 km/h (1 Bft) 97,87 %
25.09.2017 05:26 9,9 C 8,9 C 7,8 C 94 % 15 lf 1020,4 hPa 0,0 l/m 0 min 0 min 0 W/m 4,2 km/h (1 Bft) 96,36 %
25.09.2017 05:28 9,9 C 8,9 C 7,2 C 94 % 15 lf 1020,3 hPa 0,0 l/m 0 min 0 min 0 W/m 4,2 km/h (1 Bft) 97,87 %
25.09.2017 05:30 9,8 C 8,9 C 7,2 C 94 % 15 lf 1020,3 hPa 0,0 l/m 0 min 0 min 0 W/m 4,2 km/h (1 Bft) 94,74 %
25.09.2017 05:32 9,8 C 8,9 C 7,2 C 94 % 15 lf 1020,4 hPa 0,0 l/m 0 min 0 min 0 W/m 4,2 km/h (1 Bft) 93,75 %
25.09.2017 05:34 9,8 C 8,9 C 7,2 C 94 % 15 lf 1020,3 hPa 0,0 l/m 0 min 0 min 0 W/m 6,3 km/h (2 Bft) 100,00 %
25.09.2017 05:35 9,8 C 8,9 C 7,2 C 94 % 15 lf 1020,3 hPa 0,0 l/m 0 min 0 min 0 W/m 6,3 km/h (2 Bft) 100,00 %
25.09.2017 05:42 9,8 C 8,9 C 7,8 C 95 % 15 lf 1020,3 hPa 0,0 l/m 0 min 0 min 0 W/m 2,1 km/h (1 Bft) 91,43 %
25.09.2017 05:44 9,8 C 8,9 C 7,2 C 95 % 15 lf 1020,3 hPa 0,0 l/m 0 min 0 min 0 W/m 6,3 km/h (2 Bft) 91,49 %
25.09.2017 05:46 9,8 C 8,9 C 7,8 C 95 % 15 lf 1020,2 hPa 0,0 l/m 0 min 0 min 0 W/m 6,3 km/h (2 Bft) 93,62 %
25.09.2017 05:48 9,8 C 8,9 C 7,8 C 95 % 15 lf 1020,2 hPa 0,0 l/m 0 min 0 min 0 W/m 4,2 km/h (1 Bft) 95,74 %
25.09.2017 05:50 9,8 C 8,9 C 7,8 C 95 % 15 lf 1020,1 hPa 0,0 l/m 0 min 0 min 0 W/m 4,2 km/h (1 Bft) 93,62 %
25.09.2017 05:52 9,8 C 8,9 C 7,8 C 95 % 15 lf 1020,1 hPa 0,0 l/m 0 min 0 min 0 W/m 4,2 km/h (1 Bft) 86,96 %
25.09.2017 05:54 9,8 C 8,3 C 7,2 C 95 % 15 lf 1020,1 hPa 0,0 l/m 0 min 0 min 0 W/m 4,2 km/h (1 Bft) 91,49 %
25.09.2017 05:56 9,8 C 8,9 C 7,2 C 95 % 15 lf 1020,0 hPa 0,0 l/m 0 min 0 min 0 W/m 4,2 km/h (1 Bft) 93,62 %
25.09.2017 05:58 9,7 C 8,9 C 7,2 C 95 % 15 lf 1020,1 hPa 0,0 l/m 0 min 0 min 0 W/m 4,2 km/h (1 Bft) 87,23 %
25.09.2017 06:00 9,7 C 8,9 C 7,2 C 95 % 15 lf 1020,0 hPa 0,0 l/m 0 min 0 min 0 W/m 4,2 km/h (1 Bft) 87,23 %
25.09.2017 06:02 9,7 C 8,9 C 7,2 C 95 % 15 lf 1020,0 hPa 0,0 l/m 0 min 0 min 0 W/m 4,2 km/h (1 Bft) 91,49 %
25.09.2017 06:04 9,7 C 8,3 C 7,2 C 95 % 15 lf 1020,0 hPa 0,0 l/m 0 min 0 min 0 W/m 2,1 km/h (1 Bft) 89,13 %
25.09.2017 06:06 9,7 C 8,3 C 7,2 C 95 % 15 lf 1020,0 hPa 0,0 l/m 0 min 0 min 0 W/m 2,1 km/h (1 Bft) 87,23 %
25.09.2017 06:10 9,7 C 8,3 C 7,2 C 95 % 15 lf 1020,1 hPa 0,0 l/m 0 min 0 min 0 W/m 0,0 km/h (0 Bft) 90,24 %
25.09.2017 06:12 9,7 C 8,3 C 7,2 C 95 % 15 lf 1020,1 hPa 0,0 l/m 0 min 0 min 0 W/m 0,0 km/h (0 Bft) 89,36 %
25.09.2017 06:14 9,7 C 8,3 C 7,2 C 95 % 15 lf 1020,0 hPa 0,0 l/m 0 min 0 min 0 W/m 0,0 km/h (0 Bft) 89,36 %
25.09.2017 06:16 9,7 C 8,3 C 7,2 C 95 % 15 lf 1020,1 hPa 0,0 l/m 0 min 0 min 0 W/m 2,1 km/h (1 Bft) 93,62 %
25.09.2017 06:18 9,7 C 8,3 C 7,2 C 95 % 15 lf 1020,0 hPa 0,0 l/m 0 min 0 min 0 W/m 4,2 km/h (1 Bft) 95,74 %
25.09.2017 06:20 9,7 C 8,3 C 7,2 C 95 % 15 lf 1020,1 hPa 0,0 l/m 0 min 0 min 0 W/m 4,2 km/h (1 Bft) 86,96 %
25.09.2017 06:22 9,7 C 8,9 C 7,2 C 95 % 15 lf 1020,0 hPa 0,0 l/m 0 min 0 min 0 W/m 6,3 km/h (2 Bft) 78,72 %
25.09.2017 06:24 9,7 C 8,9 C 7,2 C 95 % 15 lf 1020,0 hPa 0,0 l/m 0 min 0 min 0 W/m 4,2 km/h (1 Bft) 91,49 %
25.09.2017 06:26 9,7 C 8,9 C 7,2 C 95 % 15 lf 1020,0 hPa 0,0 l/m 0 min 0 min 0 W/m 6,3 km/h (2 Bft) 89,36 %
25.09.2017 06:28 9,6 C 8,9 C 7,2 C 95 % 15 lf 1020,0 hPa 0,0 l/m 0 min 0 min 0 W/m 4,2 km/h (1 Bft) 91,49 %
25.09.2017 06:30 9,6 C 9,4 C 7,8 C 95 % 15 lf 1020,0 hPa 0,0 l/m 0 min 0 min 0 W/m 6,3 km/h (2 Bft) 95,65 %
25.09.2017 06:32 9,7 C 9,4 C 7,8 C 95 % 15 lf 1020,0 hPa 0,0 l/m 0 min 0 min 0 W/m 6,3 km/h (2 Bft) 91,49 %
25.09.2017 06:34 9,7 C 8,9 C 7,8 C 95 % 15 lf 1019,9 hPa 0,0 l/m 0 min 0 min 0 W/m 4,2 km/h (1 Bft) 93,62 %
25.09.2017 06:36 9,6 C 8,9 C 7,8 C 95 % 15 lf 1019,9 hPa 0,0 l/m 0 min 0 min 0 W/m 4,2 km/h (1 Bft) 95,74 %
25.09.2017 06:38 9,7 C 8,9 C 7,8 C 95 % 15 lf 1019,9 hPa 0,0 l/m 0 min 0 min 0 W/m 6,3 km/h (2 Bft) 97,87 %
25.09.2017 06:40 9,7 C 9,4 C 7,8 C 95 % 15 lf 1019,8 hPa 0,0 l/m 0 min 0 min 0 W/m 6,3 km/h (2 Bft) 97,87 %
25.09.2017 06:42 9,7 C 9,4 C 7,8 C 95 % 15 lf 1019,8 hPa 0,0 l/m 0 min 0 min 0 W/m 6,3 km/h (2 Bft) 93,48 %
25.09.2017 06:44 9,7 C 8,9 C 7,8 C 95 % 15 lf 1019,8 hPa 0,0 l/m 0 min 0 min 0 W/m 4,2 km/h (1 Bft) 97,87 %
25.09.2017 06:46 9,7 C 9,4 C 7,8 C 95 % 15 lf 1019,8 hPa 0,0 l/m 0 min 0 min 0 W/m 10,5 km/h (2 Bft) 95,74 %
25.09.2017 06:48 9,7 C 9,4 C 7,8 C 95 % 15 lf 1019,8 hPa 0,0 l/m 0 min 0 min 0 W/m 6,3 km/h (2 Bft) 95,74 %
25.09.2017 06:50 9,7 C 8,9 C 7,8 C 95 % 15 lf 1019,9 hPa 0,0 l/m 0 min 0 min 0 W/m 4,2 km/h (1 Bft) 93,62 %
25.09.2017 06:52 9,7 C 8,9 C 7,8 C 95 % 15 lf 1019,9 hPa 0,0 l/m 0 min 0 min 0 W/m 4,2 km/h (1 Bft) 98,15 %
25.09.2017 06:54 9,7 C 9,4 C 7,8 C 95 % 15 lf 1019,9 hPa 0,0 l/m 0 min 0 min 0 W/m 10,5 km/h (2 Bft) 93,62 %
25.09.2017 06:56 9,7 C 9,4 C 7,8 C 95 % 15 lf 1019,9 hPa 0,0 l/m 0 min 0 min 0 W/m 10,5 km/h (2 Bft) 97,83 %
25.09.2017 06:58 9,8 C 9,4 C 8,3 C 95 % 15 lf 1019,9 hPa 0,0 l/m 0 min 0 min 0 W/m 14,6 km/h (3 Bft) 95,74 %
25.09.2017 07:00 9,8 C 9,4 C 7,8 C 96 % 15 lf 1019,8 hPa 0,0 l/m 0 min 0 min 0 W/m 10,5 km/h (2 Bft) 100,00 %
25.09.2017 07:02 9,8 C 9,4 C 8,3 C 96 % 15 lf 1019,8 hPa 0,0 l/m 0 min 0 min 0 W/m 6,3 km/h (2 Bft) 100,00 %
25.09.2017 07:04 9,8 C 9,4 C 8,3 C 96 % 15 lf 1019,9 hPa 0,0 l/m 0 min 0 min 0 W/m 6,3 km/h (2 Bft) 95,74 %
25.09.2017 07:06 9,8 C 9,4 C 8,3 C 96 % 15 lf 1019,9 hPa 0,0 l/m 0 min 0 min 0 W/m 6,3 km/h (2 Bft) 97,87 %
25.09.2017 07:08 9,8 C 8,9 C 7,8 C 96 % 15 lf 1019,9 hPa 0,0 l/m 0 min 0 min 0 W/m 2,1 km/h (1 Bft) 97,83 %
25.09.2017 07:10 9,8 C 8,9 C 7,8 C 96 % 15 lf 1019,9 hPa 0,0 l/m 0 min 0 min 0 W/m 4,2 km/h (1 Bft) 95,74 %
25.09.2017 07:12 9,9 C 8,9 C 7,8 C 96 % 15 lf 1019,9 hPa 0,0 l/m 0 min 0 min 0 W/m 2,1 km/h (1 Bft) 91,49 %
25.09.2017 07:14 9,9 C 8,9 C 7,8 C 96 % 15 lf 1019,9 hPa 0,0 l/m 0 min 0 min 0 W/m 4,2 km/h (1 Bft) 95,74 %
25.09.2017 07:16 9,9 C 8,9 C 7,8 C 96 % 15 lf 1019,9 hPa 0,0 l/m 0 min 0 min 0 W/m 2,1 km/h (1 Bft) 97,87 %
25.09.2017 07:18 9,8 C 8,9 C 7,8 C 96 % 15 lf 1019,9 hPa 0,0 l/m 0 min 0 min 0 W/m 2,1 km/h (1 Bft) 95,74 %
25.09.2017 07:20 9,8 C 8,9 C 7,2 C 96 % 15 lf 1019,9 hPa 0,0 l/m 0 min 0 min 4 W/m 2,1 km/h (1 Bft) 95,65 %
25.09.2017 07:22 9,8 C 8,9 C 7,2 C 96 % 15 lf 1019,9 hPa 0,0 l/m 0 min 0 min 5 W/m 4,2 km/h (1 Bft) 100,00 %
25.09.2017 07:24 9,8 C 8,3 C 7,2 C 96 % 15 lf 1019,9 hPa 0,0 l/m 0 min 0 min 5 W/m 2,1 km/h (1 Bft) 100,00 %
25.09.2017 07:26 9,8 C 8,3 C 7,2 C 96 % 15 lf 1019,9 hPa 0,0 l/m 0 min 0 min 7 W/m 2,1 km/h (1 Bft) 95,74 %
25.09.2017 07:28 9,8 C 8,3 C 7,2 C 96 % 15 lf 1019,9 hPa 0,0 l/m 0 min 0 min 7 W/m 2,1 km/h (1 Bft) 93,62 %
25.09.2017 07:30 9,8 C 8,3 C 7,2 C 96 % 15 lf 1019,9 hPa 0,0 l/m 0 min 0 min 8 W/m 4,2 km/h (1 Bft) 93,62 %
25.09.2017 07:32 9,8 C 8,3 C 7,2 C 96 % 15 lf 1020,0 hPa 0,0 l/m 0 min 0 min 9 W/m 4,2 km/h (1 Bft) 97,83 %
25.09.2017 07:34 9,8 C 8,3 C 7,2 C 96 % 15 lf 1020,1 hPa 0,0 l/m 0 min 0 min 11 W/m 2,1 km/h (1 Bft) 93,62 %
25.09.2017 07:36 9,8 C 8,3 C 7,2 C 96 % 15 lf 1020,1 hPa 0,0 l/m 0 min 0 min 11 W/m 0,0 km/h (0 Bft) 93,62 %
25.09.2017 07:38 9,7 C 8,3 C 7,2 C 96 % 15 lf 1020,1 hPa 0,0 l/m 0 min 0 min 12 W/m 2,1 km/h (1 Bft) 97,87 %
25.09.2017 07:40 9,7 C 8,3 C 7,2 C 96 % 15 lf 1020,2 hPa 0,0 l/m 0 min 0 min 13 W/m 2,1 km/h (1 Bft) 93,62 %
25.09.2017 07:42 9,7 C 8,3 C 7,2 C 96 % 15 lf 1020,1 hPa 0,0 l/m 0 min 0 min 15 W/m 2,1 km/h (1 Bft) 95,74 %
25.09.2017 07:44 9,7 C 8,3 C 7,2 C 96 % 15 lf 1020,1 hPa 0,0 l/m 0 min 0 min 16 W/m 2,1 km/h (1 Bft) 95,65 %
25.09.2017 07:46 9,7 C 8,3 C 7,2 C 96 % 15 lf 1020,1 hPa 0,0 l/m 0 min 0 min 17 W/m 2,1 km/h (1 Bft) 93,62 %
25.09.2017 07:48 9,7 C 8,3 C 7,2 C 96 % 15 lf 1020,1 hPa 0,0 l/m 0 min 0 min 18 W/m 4,2 km/h (1 Bft) 97,87 %
25.09.2017 07:50 9,7 C 8,3 C 7,2 C 96 % 15 lf 1020,1 hPa 0,0 l/m 0 min 0 min 19 W/m 2,1 km/h (1 Bft) 95,74 %
25.09.2017 07:52 9,7 C 8,3 C 7,8 C 96 % 15 lf 1020,1 hPa 0,0 l/m 0 min 0 min 21 W/m 2,1 km/h (1 Bft) 95,74 %
25.09.2017 07:54 9,7 C 8,9 C 7,8 C 96 % 15 lf 1020,1 hPa 0,0 l/m 0 min 0 min 24 W/m 4,2 km/h (1 Bft) 93,48 %
25.09.2017 07:56 9,6 C 8,9 C 7,8 C 96 % 15 lf 1020,1 hPa 0,0 l/m 0 min 0 min 25 W/m 2,1 km/h (1 Bft) 91,49 %
25.09.2017 07:58 9,6 C 8,9 C 7,8 C 96 % 15 lf 1020,1 hPa 0,0 l/m 0 min 0 min 27 W/m 4,2 km/h (1 Bft) 91,49 %
25.09.2017 08:00 9,6 C 8,9 C 7,8 C 96 % 15 lf 1020,1 hPa 0,0 l/m 0 min 0 min 29 W/m 4,2 km/h (1 Bft) 97,87 %
25.09.2017 08:02 9,6 C 8,9 C 7,8 C 96 % 15 lf 1020,1 hPa 0,0 l/m 0 min 0 min 30 W/m 4,2 km/h (1 Bft) 95,74 %
25.09.2017 08:04 9,6 C 9,4 C 8,3 C 96 % 15 lf 1020,1 hPa 0,0 l/m 0 min 0 min 31 W/m 4,2 km/h (1 Bft) 91,49 %
25.09.2017 08:06 9,6 C 9,4 C 8,3 C 96 % 15 lf 1020,1 hPa 0,0 l/m 0 min 0 min 33 W/m 6,3 km/h (2 Bft) 95,74 %
25.09.2017 08:08 9,6 C 9,4 C 8,3 C 96 % 15 lf 1020,2 hPa 0,0 l/m 0 min 0 min 36 W/m 4,2 km/h (1 Bft) 93,48 %
25.09.2017 08:10 9,6 C 9,4 C 8,3 C 96 % 15 lf 1020,3 hPa 0,0 l/m 0 min 0 min 38 W/m 4,2 km/h (1 Bft) 91,49 %
25.09.2017 08:12 9,6 C 9,4 C 8,3 C 96 % 15 lf 1020,3 hPa 0,0 l/m 0 min 0 min 41 W/m 4,2 km/h (1 Bft) 94,00 %
25.09.2017 08:14 9,7 C 9,4 C 8,3 C 96 % 15 lf 1020,3 hPa 0,0 l/m 0 min 0 min 46 W/m 2,1 km/h (1 Bft) 91,49 %
25.09.2017 08:16 9,7 C 9,4 C 8,3 C 96 % 15 lf 1020,2 hPa 0,0 l/m 0 min 0 min 50 W/m 4,2 km/h (1 Bft) 93,62 %
25.09.2017 08:18 9,7 C 9,4 C 8,3 C 96 % 15 lf 1020,3 hPa 0,0 l/m 0 min 0 min 52 W/m 2,1 km/h (1 Bft) 91,30 %
25.09.2017 08:20 9,7 C 9,4 C 8,3 C 96 % 15 lf 1020,3 hPa 0,0 l/m 0 min 0 min 55 W/m 2,1 km/h (1 Bft) 93,62 %
25.09.2017 08:22 9,7 C 10,0 C 8,3 C 96 % 15 lf 1020,3 hPa 0,0 l/m 0 min 0 min 64 W/m 2,1 km/h (1 Bft) 91,49 %
25.09.2017 08:24 9,7 C 10,0 C 8,3 C 96 % 15 lf 1020,3 hPa 0,0 l/m 2 min 0 min 72 W/m 2,1 km/h (1 Bft) 95,74 %
25.09.2017 08:26 9,7 C 10,0 C 8,3 C 96 % 15 lf 1020,4 hPa 0,0 l/m 2 min 0 min 75 W/m 2,1 km/h (1 Bft) 93,62 %
25.09.2017 08:28 9,7 C 10,0 C 8,3 C 96 % 15 lf 1020,3 hPa 0,0 l/m 0 min 0 min 76 W/m 2,1 km/h (1 Bft) 87,23 %
25.09.2017 08:30 9,7 C 10,0 C 8,3 C 96 % 15 lf 1020,3 hPa 0,0 l/m 2 min 0 min 82 W/m 2,1 km/h (1 Bft) 97,83 %
25.09.2017 08:32 9,7 C 11,1 C 8,3 C 96 % 15 lf 1020,3 hPa 0,0 l/m 2 min 0 min 90 W/m 2,1 km/h (1 Bft) 95,74 %
25.09.2017 08:34 9,8 C 11,1 C 8,3 C 96 % 15 lf 1020,3 hPa 0,0 l/m 2 min 0 min 97 W/m 4,2 km/h (1 Bft) 93,62 %
25.09.2017 08:36 9,8 C 12,2 C 8,9 C 96 % 15 lf 1020,4 hPa 0,0 l/m 2 min 0 min 102 W/m 2,1 km/h (1 Bft) 91,49 %
25.09.2017 08:38 9,8 C 12,2 C 8,9 C 96 % 15 lf 1020,3 hPa 0,0 l/m 2 min 0 min 104 W/m 4,2 km/h (1 Bft) 87,23 %
25.09.2017 08:40 9,8 C 12,8 C 8,9 C 96 % 15 lf 1020,4 hPa 0,0 l/m 2 min 0 min 106 W/m 2,1 km/h (1 Bft) 89,36 %
25.09.2017 08:42 9,9 C 12,8 C 8,9 C 96 % 15 lf 1020,4 hPa 0,0 l/m 2 min 0 min 111 W/m 2,1 km/h (1 Bft) 86,96 %
25.09.2017 08:44 9,9 C 12,8 C 8,9 C 96 % 15 lf 1020,4 hPa 0,0 l/m 2 min 0 min 112 W/m 6,3 km/h (2 Bft) 91,49 %
25.09.2017 08:46 9,9 C 12,8 C 8,9 C 97 % 15 lf 1020,5 hPa 0,0 l/m 2 min 0 min 112 W/m 0,0 km/h (0 Bft) 93,62 %
25.09.2017 08:48 10,0 C 11,7 C 8,9 C 97 % 15 lf 1020,5 hPa 0,0 l/m 2 min 0 min 118 W/m 2,1 km/h (1 Bft) 89,36 %
25.09.2017 08:50 10,1 C 11,7 C 9,4 C 97 % 15 lf 1020,5 hPa 0,0 l/m 2 min 0 min 130 W/m 4,2 km/h (1 Bft) 89,36 %
25.09.2017 08:52 10,2 C 12,2 C 9,4 C 97 % 15 lf 1020,5 hPa 0,0 l/m 2 min 0 min 134 W/m 6,3 km/h (2 Bft) 82,98 %
25.09.2017 08:54 10,3 C 12,2 C 9,4 C 97 % 15 lf 1020,5 hPa 0,0 l/m 2 min 0 min 128 W/m 4,2 km/h (1 Bft) 91,30 %
25.09.2017 08:56 10,3 C 11,7 C 9,4 C 97 % 15 lf 1020,5 hPa 0,0 l/m 0 min 0 min 101 W/m 6,3 km/h (2 Bft) 91,49 %
25.09.2017 08:58 10,4 C 11,7 C 9,4 C 97 % 15 lf 1020,5 hPa 0,0 l/m 0 min 0 min 87 W/m 4,2 km/h (1 Bft) 87,23 %
25.09.2017 09:00 10,4 C 11,7 C 9,4 C 97 % 15 lf 1020,5 hPa 0,0 l/m 0 min 0 min 95 W/m 6,3 km/h (2 Bft) 91,49 %
25.09.2017 09:02 10,5 C 12,2 C 9,4 C 97 % 15 lf 1020,5 hPa 0,0 l/m 0 min 0 min 115 W/m 4,2 km/h (1 Bft) 82,98 %
25.09.2017 09:04 10,6 C 11,7 C 9,4 C 97 % 15 lf 1020,5 hPa 0,0 l/m 0 min 0 min 95 W/m 4,2 km/h (1 Bft) 91,49 %
25.09.2017 09:06 10,6 C 11,7 C 9,4 C 97 % 15 lf 1020,5 hPa 0,0 l/m 0 min 0 min 99 W/m 4,2 km/h (1 Bft) 91,30 %
25.09.2017 09:08 10,6 C 11,7 C 10,0 C 97 % 15 lf 1020,5 hPa 0,0 l/m 0 min 0 min 101 W/m 2,1 km/h (1 Bft) 87,23 %
25.09.2017 09:10 10,7 C 11,7 C 10,0 C 97 % 15 lf 1020,6 hPa 0,0 l/m 0 min 0 min 106 W/m 2,1 km/h (1 Bft) 89,36 %
25.09.2017 09:12 10,7 C 11,7 C 10,0 C 97 % 15 lf 1020,6 hPa 0,0 l/m 0 min 0 min 110 W/m 4,2 km/h (1 Bft) 85,11 %
25.09.2017 09:14 10,7 C 11,7 C 10,0 C 97 % 15 lf 1020,6 hPa 0,0 l/m 0 min 0 min 113 W/m 4,2 km/h (1 Bft) 91,49 %
25.09.2017 09:16 10,8 C 11,7 C 10,6 C 97 % 15 lf 1020,6 hPa 0,0 l/m 0 min 0 min 117 W/m 4,2 km/h (1 Bft) 86,96 %
25.09.2017 09:18 10,8 C 12,2 C 10,6 C 97 % 15 lf 1020,6 hPa 0,0 l/m 0 min 0 min 118 W/m 2,1 km/h (1 Bft) 91,49 %
25.09.2017 09:20 10,8 C 12,2 C 10,6 C 97 % 15 lf 1020,6 hPa 0,0 l/m 0 min 0 min 116 W/m 2,1 km/h (1 Bft) 93,62 %
25.09.2017 09:22 10,9 C 12,2 C 10,6 C 97 % 15 lf 1020,6 hPa 0,0 l/m 0 min 0 min 109 W/m 0,0 km/h (0 Bft) 93,62 %
25.09.2017 09:24 10,9 C 12,8 C 10,6 C 97 % 15 lf 1020,6 hPa 0,0 l/m 0 min 0 min 108 W/m 2,1 km/h (1 Bft) 95,74 %
25.09.2017 09:26 10,9 C 12,8 C 10,6 C 97 % 15 lf 1020,6 hPa 0,0 l/m 0 min 0 min 107 W/m 4,2 km/h (1 Bft) 97,87 %
25.09.2017 09:28 11,0 C 12,8 C 10,6 C 97 % 15 lf 1020,6 hPa 0,0 l/m 0 min 0 min 110 W/m 6,3 km/h (2 Bft) 93,48 %
25.09.2017 09:30 11,0 C 12,8 C 10,6 C 97 % 15 lf 1020,6 hPa 0,0 l/m 0 min 0 min 118 W/m 4,2 km/h (1 Bft) 93,62 %
25.09.2017 09:32 11,1 C 13,3 C 11,1 C 97 % 15 lf 1020,6 hPa 0,0 l/m 0 min 0 min 129 W/m 4,2 km/h (1 Bft) 97,87 %
25.09.2017 09:34 11,1 C 13,3 C 11,1 C 97 % 15 lf 1020,5 hPa 0,0 l/m 0 min 0 min 144 W/m 0,0 km/h (0 Bft) 95,74 %
25.09.2017 09:36 11,2 C 13,9 C 11,1 C 97 % 15 lf 1020,5 hPa 0,0 l/m 0 min 0 min 142 W/m 2,1 km/h (1 Bft) 93,62 %
25.09.2017 09:38 11,2 C 13,9 C 11,1 C 97 % 15 lf 1020,5 hPa 0,0 l/m 0 min 0 min 146 W/m 4,2 km/h (1 Bft) 100,00 %
25.09.2017 09:40 11,3 C 14,4 C 11,7 C 98 % 15 lf 1020,5 hPa 0,0 l/m 0 min 0 min 146 W/m 4,2 km/h (1 Bft) 95,65 %
25.09.2017 09:42 11,4 C 14,4 C 11,7 C 98 % 15 lf 1020,4 hPa 0,0 l/m 0 min 0 min 142 W/m 6,3 km/h (2 Bft) 95,74 %
25.09.2017 09:44 11,4 C 14,4 C 11,7 C 98 % 15 lf 1020,5 hPa 0,0 l/m 0 min 0 min 136 W/m 2,1 km/h (1 Bft) 97,87 %
25.09.2017 09:46 11,5 C 13,9 C 11,1 C 98 % 15 lf 1020,4 hPa 0,0 l/m 0 min 0 min 129 W/m 6,3 km/h (2 Bft) 100,00 %
25.09.2017 09:48 11,6 C 13,3 C 11,1 C 98 % 15 lf 1020,4 hPa 0,0 l/m 0 min 0 min 120 W/m 8,4 km/h (2 Bft) 95,74 %
25.09.2017 09:50 11,7 C 13,3 C 11,1 C 98 % 15 lf 1020,4 hPa 0,0 l/m 0 min 0 min 121 W/m 8,4 km/h (2 Bft) 97,87 %
25.09.2017 09:52 11,7 C 13,9 C 11,1 C 98 % 15 lf 1020,4 hPa 0,0 l/m 0 min 0 min 129 W/m 8,4 km/h (2 Bft) 97,83 %
25.09.2017 09:54 11,7 C 13,9 C 11,1 C 98 % 15 lf 1020,3 hPa 0,0 l/m 0 min 0 min 131 W/m 8,4 km/h (2 Bft) 89,36 %
25.09.2017 09:56 11,8 C 13,9 C 11,1 C 98 % 15 lf 1020,3 hPa 0,0 l/m 0 min 0 min 128 W/m 4,2 km/h (1 Bft) 95,74 %
25.09.2017 09:58 11,8 C 13,9 C 11,1 C 98 % 15 lf 1020,3 hPa 0,0 l/m 0 min 0 min 125 W/m 4,2 km/h (1 Bft) 95,74 %
25.09.2017 10:00 11,9 C 15,0 C 11,7 C 98 % 15 lf 1020,2 hPa 0,0 l/m 2 min 0 min 222 W/m 4,2 km/h (1 Bft) 93,62 %
25.09.2017 10:02 11,9 C 15,0 C 11,7 C 98 % 15 lf 1020,2 hPa 0,0 l/m 2 min 0 min 322 W/m 4,2 km/h (1 Bft) 97,87 %
25.09.2017 10:04 12,0 C 15,6 C 12,2 C 98 % 15 lf 1020,3 hPa 0,0 l/m 2 min 0 min 344 W/m 4,2 km/h (1 Bft) 91,30 %
25.09.2017 10:06 12,1 C 15,0 C 12,2 C 98 % 15 lf 1020,3 hPa 0,0 l/m 2 min 0 min 341 W/m 8,4 km/h (2 Bft) 95,74 %
25.09.2017 10:08 12,2 C 15,6 C 12,2 C 98 % 15 lf 1020,3 hPa 0,0 l/m 2 min 0 min 347 W/m 10,5 km/h (2 Bft) 91,49 %
25.09.2017 10:10 12,3 C 17,2 C 12,2 C 98 % 15 lf 1020,3 hPa 0,0 l/m 2 min 0 min 352 W/m 10,5 km/h (2 Bft) 93,62 %
25.09.2017 10:12 12,4 C 18,3 C 12,2 C 98 % 15 lf 1020,2 hPa 0,0 l/m 2 min 0 min 357 W/m 10,5 km/h (2 Bft) 95,74 %
25.09.2017 10:14 12,5 C 20,0 C 12,8 C 98 % 15 lf 1020,2 hPa 0,0 l/m 2 min 0 min 361 W/m 6,3 km/h (2 Bft) 93,62 %
25.09.2017 10:16 12,6 C 20,0 C 12,8 C 98 % 15 lf 1020,3 hPa 0,0 l/m 2 min 0 min 365 W/m 6,3 km/h (2 Bft) 95,65 %
25.09.2017 10:18 12,7 C 21,1 C 13,3 C 98 % 15 lf 1020,2 hPa 0,0 l/m 2 min 0 min 368 W/m 6,3 km/h (2 Bft) 93,62 %
25.09.2017 10:20 12,9 C 21,7 C 13,9 C 98 % 15 lf 1020,3 hPa 0,0 l/m 2 min 0 min 373 W/m 10,5 km/h (2 Bft) 95,74 %
25.09.2017 10:22 12,9 C 21,1 C 13,9 C 98 % 15 lf 1020,3 hPa 0,0 l/m 2 min 0 min 383 W/m 14,6 km/h (3 Bft) 91,49 %
25.09.2017 10:24 13,1 C 21,7 C 13,9 C 98 % 14 lf 1020,3 hPa 0,0 l/m 2 min 0 min 383 W/m 8,4 km/h (2 Bft) 95,74 %
25.09.2017 10:26 13,2 C 22,2 C 13,9 C 98 % 11 lf 1020,3 hPa 0,0 l/m 2 min 0 min 386 W/m 6,3 km/h (2 Bft) 100,00 %
25.09.2017 10:28 13,2 C 21,1 C 14,4 C 98 % 5 lf 1020,3 hPa 0,0 l/m 2 min 0 min 396 W/m 4,2 km/h (1 Bft) 97,87 %
25.09.2017 10:30 13,3 C 21,1 C 14,4 C 98 % 2 lf 1020,3 hPa 0,0 l/m 2 min 0 min 389 W/m 2,1 km/h (1 Bft) 97,87 %
25.09.2017 10:32 13,4 C 21,1 C 14,4 C 98 % 0 lf 1020,3 hPa 0,0 l/m 2 min 0 min 394 W/m 10,5 km/h (2 Bft) 95,74 %
25.09.2017 10:34 13,6 C 21,7 C 15,0 C 98 % 0 lf 1020,3 hPa 0,0 l/m 2 min 0 min 408 W/m 12,6 km/h (3 Bft) 93,62 %
25.09.2017 10:36 13,6 C 22,8 C 15,0 C 98 % 0 lf 1020,3 hPa 0,0 l/m 2 min 0 min 414 W/m 14,6 km/h (3 Bft) 93,75 %
25.09.2017 10:38 13,7 C 22,8 C 15,6 C 98 % 0 lf 1020,3 hPa 0,0 l/m 2 min 0 min 416 W/m 8,4 km/h (2 Bft) 95,65 %
25.09.2017 10:40 13,8 C 22,8 C 16,7 C 98 % 0 lf 1020,3 hPa 0,0 l/m 2 min 0 min 418 W/m 14,6 km/h (3 Bft) 100,00 %
25.09.2017 10:42 13,9 C 22,8 C 17,2 C 98 % 0 lf 1020,3 hPa 0,0 l/m 2 min 0 min 430 W/m 12,6 km/h (3 Bft) 95,74 %
25.09.2017 10:44 14,0 C 22,2 C 17,8 C 98 % 0 lf 1020,3 hPa 0,0 l/m 2 min 0 min 437 W/m 12,6 km/h (3 Bft) 95,74 %
25.09.2017 10:46 14,2 C 23,3 C 18,9 C 98 % 0 lf 1020,3 hPa 0,0 l/m 2 min 0 min 434 W/m 14,6 km/h (3 Bft) 100,00 %
25.09.2017 10:48 14,2 C 23,3 C 19,4 C 98 % 0 lf 1020,4 hPa 0,0 l/m 2 min 0 min 443 W/m 14,6 km/h (3 Bft) 97,87 %
25.09.2017 10:50 14,2 C 24,4 C 19,4 C 98 % 0 lf 1020,4 hPa 0,0 l/m 2 min 0 min 439 W/m 14,6 km/h (3 Bft) 97,83 %
25.09.2017 10:52 14,3 C 23,3 C 20,0 C 98 % 0 lf 1020,4 hPa 0,0 l/m 2 min 0 min 448 W/m 14,6 km/h (3 Bft) 93,62 %
25.09.2017 10:54 14,4 C 25,0 C 20,0 C 98 % 0 lf 1020,4 hPa 0,0 l/m 2 min 0 min 452 W/m 10,5 km/h (2 Bft) 93,62 %
25.09.2017 10:56 14,6 C 26,1 C 20,6 C 98 % 0 lf 1020,4 hPa 0,0 l/m 2 min 0 min 449 W/m 12,6 km/h (3 Bft) 97,87 %
25.09.2017 10:58 14,7 C 24,4 C 20,0 C 98 % 0 lf 1020,3 hPa 0,0 l/m 2 min 0 min 465 W/m 16,7 km/h (3 Bft) 95,74 %
25.09.2017 11:00 14,8 C 24,4 C 18,9 C 98 % 0 lf 1020,3 hPa 0,0 l/m 2 min 0 min 476 W/m 12,6 km/h (3 Bft) 100,00 %
25.09.2017 11:02 14,8 C 22,2 C 18,9 C 98 % 0 lf 1020,4 hPa 0,0 l/m 2 min 0 min 481 W/m 14,6 km/h (3 Bft) 93,48 %
25.09.2017 11:04 14,9 C 20,6 C 17,8 C 97 % 0 lf 1020,4 hPa 0,0 l/m 0 min 0 min 208 W/m 16,7 km/h (3 Bft) 93,62 %
25.09.2017 11:06 14,9 C 20,6 C 18,3 C 97 % 0 lf 1020,4 hPa 0,0 l/m 2 min 0 min 359 W/m 12,6 km/h (3 Bft) 95,74 %
25.09.2017 11:08 15,0 C 21,1 C 18,9 C 96 % 0 lf 1020,4 hPa 0,0 l/m 2 min 0 min 369 W/m 10,5 km/h (2 Bft) 100,00 %
25.09.2017 11:10 15,1 C 22,2 C 18,9 C 95 % 0 lf 1020,4 hPa 0,0 l/m 2 min 0 min 337 W/m 12,6 km/h (3 Bft) 95,74 %
25.09.2017 11:12 15,2 C 22,2 C 18,9 C 95 % 0 lf 1020,3 hPa 0,0 l/m 2 min 0 min 452 W/m 18,8 km/h (3 Bft) 97,87 %
25.09.2017 11:14 15,3 C 22,2 C 19,4 C 93 % 0 lf 1020,4 hPa 0,0 l/m 2 min 0 min 541 W/m 16,7 km/h (3 Bft) 95,65 %
25.09.2017 11:16 15,4 C 22,8 C 19,4 C 93 % 0 lf 1020,4 hPa 0,0 l/m 2 min 0 min 502 W/m 14,6 km/h (3 Bft) 100,00 %
25.09.2017 11:18 15,4 C 22,2 C 18,3 C 92 % 0 lf 1020,4 hPa 0,0 l/m 2 min 0 min 432 W/m 14,6 km/h (3 Bft) 91,49 %
25.09.2017 11:20 15,6 C 20,6 C 18,3 C 91 % 0 lf 1020,4 hPa 0,0 l/m 2 min 0 min 258 W/m 14,6 km/h (3 Bft) 91,49 %
25.09.2017 11:22 15,6 C 20,0 C 17,2 C 90 % 0 lf 1020,4 hPa 0,0 l/m 2 min 0 min 262 W/m 16,7 km/h (3 Bft) 95,74 %
25.09.2017 11:24 15,7 C 19,4 C 17,2 C 90 % 0 lf 1020,5 hPa 0,0 l/m 2 min 0 min 305 W/m 12,6 km/h (3 Bft) 91,49 %
25.09.2017 11:26 15,8 C 21,1 C 18,9 C 89 % 0 lf 1020,5 hPa 0,0 l/m 2 min 0 min 399 W/m 12,6 km/h (3 Bft) 93,48 %
25.09.2017 11:28 15,8 C 21,1 C 19,4 C 89 % 0 lf 1020,3 hPa 0,0 l/m 2 min 0 min 571 W/m 16,7 km/h (3 Bft) 89,36 %
25.09.2017 11:30 15,9 C 22,8 C 20,0 C 88 % 0 lf 1020,3 hPa 0,2 l/m 2 min 0 min 559 W/m 14,6 km/h (3 Bft) 89,36 %
25.09.2017 11:32 16,0 C 23,9 C 20,6 C 88 % 0 lf 1020,3 hPa 0,0 l/m 2 min 0 min 542 W/m 12,6 km/h (3 Bft) 89,36 %
25.09.2017 11:34 16,1 C 24,4 C 20,6 C 88 % 0 lf 1020,3 hPa 0,0 l/m 2 min 0 min 535 W/m 14,6 km/h (3 Bft) 91,49 %
25.09.2017 11:36 16,2 C 23,9 C 20,0 C 88 % 0 lf 1020,3 hPa 0,0 l/m 2 min 0 min 649 W/m 16,7 km/h (3 Bft) 93,48 %
25.09.2017 11:38 16,3 C 24,4 C 20,6 C 87 % 0 lf 1020,3 hPa 0,0 l/m 2 min 0 min 576 W/m 12,6 km/h (3 Bft) 89,36 %
25.09.2017 11:40 16,4 C 23,3 C 21,1 C 87 % 0 lf 1020,3 hPa 0,0 l/m 2 min 0 min 562 W/m 12,6 km/h (3 Bft) 89,36 %
25.09.2017 11:42 16,6 C 22,8 C 21,1 C 86 % 0 lf 1020,3 hPa 0,0 l/m 2 min 0 min 532 W/m 14,6 km/h (3 Bft) 91,49 %
25.09.2017 11:44 16,7 C 23,9 C 21,7 C 86 % 0 lf 1020,3 hPa 0,0 l/m 2 min 0 min 559 W/m 14,6 km/h (3 Bft) 87,23 %
25.09.2017 11:46 16,7 C 26,1 C 21,1 C 85 % 0 lf 1020,3 hPa 0,0 l/m 2 min 0 min 538 W/m 14,6 km/h (3 Bft) 89,36 %
25.09.2017 11:48 16,8 C 24,4 C 21,1 C 85 % 0 lf 1020,3 hPa 0,0 l/m 2 min 0 min 552 W/m 14,6 km/h (3 Bft) 86,96 %
25.09.2017 11:50 16,9 C 23,9 C 21,1 C 84 % 0 lf 1020,1 hPa 0,0 l/m 2 min 0 min 544 W/m 12,6 km/h (3 Bft) 87,23 %
25.09.2017 11:52 17,0 C 25,0 C 21,7 C 84 % 0 lf 1020,2 hPa 0,0 l/m 2 min 0 min 540 W/m 14,6 km/h (3 Bft) 89,36 %
25.09.2017 11:54 17,1 C 25,0 C 22,2 C 84 % 0 lf 1020,2 hPa 0,0 l/m 2 min 0 min 536 W/m 14,6 km/h (3 Bft) 89,36 %
25.09.2017 11:56 17,2 C 23,3 C 21,7 C 83 % 0 lf 1020,2 hPa 0,0 l/m 2 min 0 min 549 W/m 16,7 km/h (3 Bft) 87,23 %
25.09.2017 11:58 17,3 C 24,4 C 21,7 C 83 % 0 lf 1020,1 hPa 0,0 l/m 2 min 0 min 791 W/m 12,6 km/h (3 Bft) 89,36 %
25.09.2017 12:00 17,4 C 24,4 C 22,2 C 82 % 0 lf 1020,1 hPa 0,0 l/m 2 min 0 min 592 W/m 10,5 km/h (2 Bft) 89,13 %
25.09.2017 12:02 17,4 C 25,0 C 22,2 C 82 % 0 lf 1020,1 hPa 0,0 l/m 2 min 0 min 601 W/m 12,6 km/h (3 Bft) 91,49 %
25.09.2017 12:04 17,6 C 24,4 C 22,2 C 82 % 0 lf 1020,1 hPa 0,0 l/m 2 min 0 min 563 W/m 10,5 km/h (2 Bft) 85,11 %
25.09.2017 12:06 17,6 C 26,1 C 21,7 C 81 % 0 lf 1020,1 hPa 0,0 l/m 2 min 0 min 562 W/m 10,5 km/h (2 Bft) 89,36 %
25.09.2017 12:10 17,8 C 26,1 C 21,1 C 81 % 0 lf 1020,1 hPa 0,0 l/m 4 min 0 min 562 W/m 14,6 km/h (3 Bft) 91,76 %
25.09.2017 12:12 17,8 C 24,4 C 21,7 C 80 % 0 lf 1020,1 hPa 0,0 l/m 2 min 0 min 613 W/m 12,6 km/h (3 Bft) 95,74 %
25.09.2017 12:14 17,9 C 24,4 C 21,7 C 80 % 0 lf 1020,1 hPa 0,0 l/m 2 min 0 min 615 W/m 16,7 km/h (3 Bft) 95,65 %
25.09.2017 12:16 17,9 C 25,0 C 21,7 C 80 % 0 lf 1020,1 hPa 0,0 l/m 2 min 0 min 617 W/m 14,6 km/h (3 Bft) 89,36 %
25.09.2017 12:18 18,0 C 24,4 C 21,7 C 80 % 0 lf 1020,0 hPa 0,0 l/m 2 min 0 min 619 W/m 8,4 km/h (2 Bft) 95,74 %
25.09.2017 12:20 18,1 C 24,4 C 22,2 C 80 % 0 lf 1020,0 hPa 0,0 l/m 2 min 0 min 578 W/m 8,4 km/h (2 Bft) 93,22 %
25.09.2017 12:22 18,1 C 26,1 C 21,7 C 79 % 0 lf 1019,9 hPa 0,0 l/m 2 min 0 min 588 W/m 10,5 km/h (2 Bft) 91,43 %
25.09.2017 12:24 18,2 C 26,1 C 21,7 C 79 % 0 lf 1019,9 hPa 0,0 l/m 2 min 0 min 597 W/m 14,6 km/h (3 Bft) 93,62 %
25.09.2017 12:26 18,2 C 25,6 C 22,2 C 79 % 0 lf 1019,9 hPa 0,0 l/m 2 min 0 min 640 W/m 14,6 km/h (3 Bft) 93,48 %
25.09.2017 12:28 18,3 C 26,1 C 22,8 C 79 % 0 lf 1019,8 hPa 0,0 l/m 2 min 0 min 627 W/m 8,4 km/h (2 Bft) 89,36 %
25.09.2017 12:30 18,3 C 27,2 C 22,2 C 79 % 0 lf 1019,8 hPa 0,0 l/m 2 min 0 min 628 W/m 10,5 km/h (2 Bft) 95,74 %
25.09.2017 12:32 18,4 C 27,2 C 22,8 C 79 % 0 lf 1019,8 hPa 0,0 l/m 2 min 0 min 629 W/m 12,6 km/h (3 Bft) 97,87 %
25.09.2017 12:34 18,5 C 28,3 C 22,2 C 78 % 0 lf 1019,8 hPa 0,0 l/m 2 min 0 min 631 W/m 10,5 km/h (2 Bft) 95,74 %
25.09.2017 12:36 18,6 C 28,9 C 22,8 C 78 % 0 lf 1019,8 hPa 0,0 l/m 2 min 0 min 632 W/m 6,3 km/h (2 Bft) 95,74 %
25.09.2017 12:38 18,7 C 28,9 C 23,3 C 79 % 0 lf 1019,7 hPa 0,0 l/m 2 min 0 min 633 W/m 16,7 km/h (3 Bft) 86,96 %
25.09.2017 12:40 18,8 C 27,2 C 22,2 C 79 % 0 lf 1019,7 hPa 0,0 l/m 2 min 0 min 634 W/m 14,6 km/h (3 Bft) 95,74 %
25.09.2017 12:42 18,9 C 25,6 C 21,1 C 77 % 0 lf 1019,7 hPa 0,0 l/m 2 min 0 min 635 W/m 12,6 km/h (3 Bft) 95,74 %
25.09.2017 12:44 18,9 C 25,0 C 20,0 C 76 % 0 lf 1019,8 hPa 0,0 l/m 2 min 0 min 636 W/m 10,5 km/h (2 Bft) 95,74 %
25.09.2017 12:46 19,1 C 24,4 C 20,0 C 76 % 0 lf 1019,7 hPa 0,0 l/m 2 min 0 min 637 W/m 8,4 km/h (2 Bft) 97,87 %
25.09.2017 12:48 19,1 C 25,0 C 19,4 C 76 % 0 lf 1019,7 hPa 0,0 l/m 2 min 0 min 638 W/m 6,3 km/h (2 Bft) 95,74 %
25.09.2017 12:50 19,2 C 26,7 C 19,4 C 76 % 0 lf 1019,8 hPa 0,0 l/m 2 min 0 min 639 W/m 8,4 km/h (2 Bft) 96,55 %
25.09.2017 12:52 19,2 C 26,7 C 18,9 C 76 % 0 lf 1019,7 hPa 0,0 l/m 2 min 0 min 640 W/m 10,5 km/h (2 Bft) 88,57 %
25.09.2017 12:54 19,3 C 26,7 C 18,9 C 75 % 0 lf 1019,8 hPa 0,0 l/m 2 min 0 min 641 W/m 18,8 km/h (3 Bft) 91,49 %
25.09.2017 12:56 19,4 C 28,3 C 18,3 C 75 % 0 lf 1019,8 hPa 0,0 l/m 2 min 0 min 642 W/m 10,5 km/h (2 Bft) 95,74 %
25.09.2017 12:58 19,4 C 28,3 C 18,3 C 75 % 0 lf 1019,8 hPa 0,0 l/m 2 min 0 min 642 W/m 18,8 km/h (3 Bft) 95,74 %
25.09.2017 13:00 19,5 C 28,3 C 18,3 C 75 % 0 lf 1019,8 hPa 0,0 l/m 2 min 0 min 643 W/m 10,5 km/h (2 Bft) 89,36 %
25.09.2017 13:02 19,6 C 28,3 C 18,3 C 74 % 0 lf 1019,7 hPa 0,0 l/m 2 min 0 min 644 W/m 12,6 km/h (3 Bft) 93,48 %
25.09.2017 13:04 19,7 C 28,3 C 17,8 C 74 % 0 lf 1019,8 hPa 0,0 l/m 2 min 0 min 644 W/m 16,7 km/h (3 Bft) 91,49 %
25.09.2017 13:06 19,6 C 26,1 C 17,8 C 72 % 0 lf 1019,7 hPa 0,0 l/m 2 min 0 min 858 W/m 18,8 km/h (3 Bft) 95,74 %
25.09.2017 13:08 19,6 C 23,9 C 18,3 C 72 % 0 lf 1019,8 hPa 0,0 l/m 2 min 0 min 645 W/m 14,6 km/h (3 Bft) 95,74 %
25.09.2017 13:10 19,6 C 22,2 C 18,3 C 72 % 0 lf 1019,8 hPa 0,0 l/m 2 min 0 min 646 W/m 18,8 km/h (3 Bft) 97,87 %
25.09.2017 13:12 19,5 C 22,8 C 17,8 C 71 % 0 lf 1019,8 hPa 0,0 l/m 2 min 0 min 646 W/m 14,6 km/h (3 Bft) 97,87 %
25.09.2017 13:14 19,5 C 23,3 C 18,3 C 72 % 0 lf 1019,7 hPa 0,0 l/m 2 min 0 min 646 W/m 10,5 km/h (2 Bft) 95,65 %
25.09.2017 13:16 19,5 C 23,3 C 18,3 C 72 % 0 lf 1019,7 hPa 0,0 l/m 2 min 0 min 647 W/m 14,6 km/h (3 Bft) 93,62 %
25.09.2017 13:18 19,5 C 23,9 C 18,3 C 73 % 0 lf 1019,7 hPa 0,0 l/m 2 min 0 min 647 W/m 14,6 km/h (3 Bft) 97,87 %
25.09.2017 13:20 19,4 C 24,4 C 18,3 C 73 % 0 lf 1019,7 hPa 0,0 l/m 2 min 0 min 647 W/m 16,7 km/h (3 Bft) 94,92 %
25.09.2017 13:22 19,5 C 25,0 C 18,3 C 74 % 0 lf 1019,7 hPa 0,0 l/m 2 min 0 min 647 W/m 14,6 km/h (3 Bft) 100,00 %
25.09.2017 13:24 19,5 C 26,1 C 17,8 C 74 % 0 lf 1019,7 hPa 0,0 l/m 2 min 0 min 647 W/m 14,6 km/h (3 Bft) 97,83 %
25.09.2017 13:26 19,5 C 26,1 C 17,2 C 73 % 0 lf 1019,7 hPa 0,0 l/m 2 min 0 min 647 W/m 16,7 km/h (3 Bft) 95,74 %
25.09.2017 13:28 19,4 C 27,2 C 17,2 C 73 % 0 lf 1019,6 hPa 0,0 l/m 2 min 0 min 647 W/m 8,4 km/h (2 Bft) 91,49 %
25.09.2017 13:30 19,4 C 27,8 C 17,8 C 73 % 0 lf 1019,6 hPa 0,0 l/m 2 min 0 min 647 W/m 8,4 km/h (2 Bft) 95,74 %
25.09.2017 13:32 19,4 C 27,8 C 18,3 C 74 % 0 lf 1019,5 hPa 0,0 l/m 2 min 0 min 647 W/m 10,5 km/h (2 Bft) 97,87 %
25.09.2017 13:34 19,4 C 28,3 C 18,3 C 75 % 0 lf 1019,6 hPa 0,0 l/m 2 min 0 min 647 W/m 10,5 km/h (2 Bft) 97,87 %
25.09.2017 13:36 19,5 C 31,1 C 18,9 C 75 % 0 lf 1019,5 hPa 0,0 l/m 2 min 0 min 646 W/m 8,4 km/h (2 Bft) 97,83 %
25.09.2017 13:38 19,6 C 30,6 C 19,4 C 74 % 0 lf 1019,5 hPa 0,0 l/m 2 min 0 min 646 W/m 10,5 km/h (2 Bft) 93,62 %
25.09.2017 13:40 19,7 C 31,1 C 20,0 C 74 % 0 lf 1019,5 hPa 0,0 l/m 2 min 0 min 646 W/m 18,8 km/h (3 Bft) 97,87 %
25.09.2017 13:42 19,7 C 31,1 C 20,0 C 73 % 0 lf 1019,5 hPa 0,0 l/m 2 min 0 min 645 W/m 14,6 km/h (3 Bft) 93,62 %
25.09.2017 13:44 19,8 C 30,0 C 19,4 C 73 % 0 lf 1019,5 hPa 0,0 l/m 2 min 0 min 645 W/m 16,7 km/h (3 Bft) 97,87 %
25.09.2017 13:46 19,9 C 27,8 C 20,0 C 72 % 0 lf 1019,5 hPa 0,0 l/m 2 min 0 min 645 W/m 12,6 km/h (3 Bft) 97,87 %
25.09.2017 13:48 19,9 C 26,1 C 19,4 C 71 % 0 lf 1019,5 hPa 0,0 l/m 2 min 0 min 644 W/m 14,6 km/h (3 Bft) 97,83 %
25.09.2017 13:50 19,9 C 25,6 C 19,4 C 71 % 0 lf 1019,5 hPa 0,0 l/m 2 min 0 min 643 W/m 14,6 km/h (3 Bft) 95,74 %
25.09.2017 13:52 19,9 C 25,0 C 19,4 C 71 % 0 lf 1019,5 hPa 0,0 l/m 2 min 0 min 643 W/m 12,6 km/h (3 Bft) 93,62 %
25.09.2017 13:54 19,8 C 23,9 C 19,4 C 72 % 0 lf 1019,5 hPa 0,0 l/m 2 min 0 min 642 W/m 12,6 km/h (3 Bft) 91,49 %
25.09.2017 13:56 19,8 C 23,3 C 20,0 C 72 % 0 lf 1019,5 hPa 0,0 l/m 2 min 0 min 641 W/m 16,7 km/h (3 Bft) 95,74 %
25.09.2017 13:58 19,8 C 22,8 C 20,6 C 71 % 0 lf 1019,4 hPa 0,0 l/m 2 min 0 min 641 W/m 14,6 km/h (3 Bft) 97,87 %
25.09.2017 14:00 19,8 C 22,8 C 19,4 C 71 % 0 lf 1019,4 hPa 0,0 l/m 2 min 0 min 640 W/m 14,6 km/h (3 Bft) 86,96 %
25.09.2017 14:02 19,7 C 22,8 C 20,0 C 71 % 0 lf 1019,4 hPa 0,0 l/m 2 min 0 min 639 W/m 16,7 km/h (3 Bft) 89,36 %
25.09.2017 14:04 19,7 C 21,7 C 20,0 C 71 % 0 lf 1019,4 hPa 0,0 l/m 2 min 0 min 638 W/m 18,8 km/h (3 Bft) 93,62 %
25.09.2017 14:06 19,7 C 21,1 C 20,0 C 70 % 0 lf 1019,5 hPa 0,0 l/m 2 min 0 min 637 W/m 16,7 km/h (3 Bft) 93,62 %
25.09.2017 14:08 19,7 C 22,8 C 20,6 C 70 % 0 lf 1019,4 hPa 0,0 l/m 2 min 0 min 636 W/m 12,6 km/h (3 Bft) 91,49 %
25.09.2017 14:10 19,7 C 23,9 C 20,6 C 70 % 0 lf 1019,4 hPa 0,0 l/m 2 min 0 min 635 W/m 16,7 km/h (3 Bft) 91,49 %
25.09.2017 14:12 19,7 C 24,4 C 20,6 C 71 % 0 lf 1019,4 hPa 0,0 l/m 2 min 0 min 634 W/m 14,6 km/h (3 Bft) 91,30 %
25.09.2017 14:14 19,7 C 23,9 C 20,0 C 71 % 0 lf 1019,5 hPa 0,0 l/m 2 min 0 min 632 W/m 14,6 km/h (3 Bft) 95,74 %
25.09.2017 14:16 19,7 C 23,9 C 20,0 C 72 % 0 lf 1019,5 hPa 0,0 l/m 2 min 0 min 631 W/m 16,7 km/h (3 Bft) 91,49 %
25.09.2017 14:18 19,7 C 23,3 C 20,0 C 72 % 0 lf 1019,4 hPa 0,0 l/m 2 min 0 min 630 W/m 14,6 km/h (3 Bft) 95,74 %
25.09.2017 14:20 19,7 C 22,8 C 19,4 C 72 % 0 lf 1019,4 hPa 0,0 l/m 2 min 0 min 629 W/m 14,6 km/h (3 Bft) 91,49 %
25.09.2017 14:22 19,7 C 22,2 C 18,9 C 71 % 0 lf 1019,4 hPa 0,0 l/m 2 min 0 min 627 W/m 14,6 km/h (3 Bft) 89,36 %
25.09.2017 14:24 19,7 C 22,2 C 18,9 C 71 % 0 lf 1019,5 hPa 0,0 l/m 2 min 0 min 825 W/m 6,3 km/h (2 Bft) 93,48 %
25.09.2017 14:26 19,7 C 22,2 C 18,9 C 72 % 0 lf 1019,4 hPa 0,0 l/m 2 min 0 min 624 W/m 14,6 km/h (3 Bft) 91,49 %
25.09.2017 14:28 19,6 C 21,7 C 18,9 C 72 % 0 lf 1019,5 hPa 0,0 l/m 2 min 0 min 623 W/m 20,9 km/h (4 Bft) 89,36 %
25.09.2017 14:30 19,6 C 21,7 C 18,9 C 72 % 0 lf 1019,4 hPa 0,0 l/m 2 min 0 min 621 W/m 14,6 km/h (3 Bft) 89,36 %
25.09.2017 14:32 19,6 C 21,7 C 18,9 C 72 % 0 lf 1019,4 hPa 0,0 l/m 2 min 0 min 619 W/m 14,6 km/h (3 Bft) 93,62 %
25.09.2017 14:34 19,5 C 21,1 C 18,9 C 72 % 0 lf 1019,4 hPa 0,0 l/m 2 min 0 min 618 W/m 14,6 km/h (3 Bft) 93,62 %
25.09.2017 14:36 19,4 C 21,1 C 18,3 C 72 % 0 lf 1019,4 hPa 0,0 l/m 2 min 0 min 616 W/m 16,7 km/h (3 Bft) 91,30 %
25.09.2017 14:38 19,4 C 20,6 C 18,9 C 72 % 0 lf 1019,5 hPa 0,0 l/m 2 min 0 min 614 W/m 16,7 km/h (3 Bft) 95,74 %
25.09.2017 14:40 19,3 C 20,0 C 19,4 C 72 % 0 lf 1019,4 hPa 0,0 l/m 2 min 0 min 612 W/m 16,7 km/h (3 Bft) 97,87 %
25.09.2017 14:42 19,3 C 20,0 C 19,4 C 72 % 0 lf 1019,4 hPa 0,0 l/m 2 min 0 min 611 W/m 10,5 km/h (2 Bft) 97,87 %
25.09.2017 14:44 19,3 C 20,6 C 19,4 C 73 % 0 lf 1019,4 hPa 0,0 l/m 2 min 0 min 609 W/m 8,4 km/h (2 Bft) 91,49 %
25.09.2017 14:46 19,3 C 20,6 C 19,4 C 73 % 0 lf 1019,4 hPa 0,0 l/m 2 min 0 min 607 W/m 8,4 km/h (2 Bft) 95,65 %
25.09.2017 14:48 19,3 C 20,6 C 19,4 C 73 % 0 lf 1019,4 hPa 0,0 l/m 2 min 0 min 605 W/m 10,5 km/h (2 Bft) 93,62 %
25.09.2017 14:50 19,2 C 20,0 C 19,4 C 72 % 0 lf 1019,5 hPa 0,0 l/m 2 min 0 min 603 W/m 12,6 km/h (3 Bft) 93,22 %
25.09.2017 14:52 19,2 C 20,0 C 19,4 C 72 % 0 lf 1019,4 hPa 0,0 l/m 2 min 0 min 600 W/m 10,5 km/h (2 Bft) 97,14 %
25.09.2017 14:54 19,2 C 20,6 C 19,4 C 72 % 0 lf 1019,4 hPa 0,0 l/m 2 min 0 min 598 W/m 8,4 km/h (2 Bft) 91,49 %
25.09.2017 14:56 19,2 C 20,6 C 18,9 C 72 % 0 lf 1019,4 hPa 0,0 l/m 2 min 0 min 596 W/m 10,5 km/h (2 Bft) 93,62 %
25.09.2017 14:58 19,2 C 20,6 C 19,4 C 72 % 0 lf 1019,4 hPa 0,0 l/m 2 min 0 min 594 W/m 6,3 km/h (2 Bft) 93,48 %
25.09.2017 15:00 19,2 C 20,6 C 19,4 C 72 % 0 lf 1019,4 hPa 0,0 l/m 2 min 0 min 592 W/m 14,6 km/h (3 Bft) 91,49 %
25.09.2017 15:02 19,1 C 20,0 C 19,4 C 72 % 0 lf 1019,4 hPa 0,0 l/m 2 min 0 min 368 W/m 16,7 km/h (3 Bft) 89,36 %
25.09.2017 15:04 19,1 C 20,0 C 18,9 C 72 % 0 lf 1019,4 hPa 0,0 l/m 0 min 0 min 201 W/m 14,6 km/h (3 Bft) 93,62 %
25.09.2017 15:06 19,1 C 19,4 C 18,9 C 72 % 0 lf 1019,5 hPa 0,0 l/m 0 min 0 min 199 W/m 16,7 km/h (3 Bft) 91,49 %
25.09.2017 15:08 19,1 C 19,4 C 18,9 C 73 % 0 lf 1019,4 hPa 0,0 l/m 0 min 0 min 195 W/m 12,6 km/h (3 Bft) 93,62 %
25.09.2017 15:10 19,1 C 20,0 C 18,9 C 73 % 0 lf 1019,4 hPa 0,0 l/m 0 min 0 min 192 W/m 10,5 km/h (2 Bft) 91,30 %
25.09.2017 15:12 19,0 C 20,0 C 18,9 C 73 % 0 lf 1019,4 hPa 0,0 l/m 0 min 0 min 188 W/m 12,6 km/h (3 Bft) 93,62 %
25.09.2017 15:14 19,0 C 20,6 C 18,3 C 73 % 0 lf 1019,3 hPa 0,0 l/m 0 min 0 min 186 W/m 12,6 km/h (3 Bft) 91,49 %
25.09.2017 15:16 19,0 C 20,0 C 18,9 C 74 % 0 lf 1019,3 hPa 0,0 l/m 0 min 0 min 186 W/m 10,5 km/h (2 Bft) 91,49 %
25.09.2017 15:18 19,0 C 20,0 C 18,3 C 74 % 0 lf 1019,3 hPa 0,0 l/m 0 min 0 min 189 W/m 14,6 km/h (3 Bft) 89,36 %
25.09.2017 15:20 19,0 C 20,0 C 18,3 C 74 % 0 lf 1019,3 hPa 0,0 l/m 0 min 0 min 190 W/m 12,6 km/h (3 Bft) 91,38 %
25.09.2017 15:22 18,9 C 20,0 C 18,3 C 74 % 0 lf 1019,3 hPa 0,0 l/m 0 min 0 min 194 W/m 14,6 km/h (3 Bft) 91,43 %
25.09.2017 15:24 18,9 C 20,0 C 18,3 C 74 % 0 lf 1019,3 hPa 0,0 l/m 0 min 0 min 200 W/m 10,5 km/h (2 Bft) 93,62 %
25.09.2017 15:26 18,9 C 20,6 C 18,3 C 74 % 0 lf 1019,2 hPa 0,0 l/m 0 min 0 min 192 W/m 6,3 km/h (2 Bft) 89,36 %
25.09.2017 15:28 18,9 C 20,6 C 18,3 C 74 % 0 lf 1019,2 hPa 0,0 l/m 0 min 0 min 191 W/m 12,6 km/h (3 Bft) 95,74 %
25.09.2017 15:30 18,9 C 20,0 C 18,3 C 74 % 0 lf 1019,2 hPa 0,0 l/m 0 min 0 min 181 W/m 16,7 km/h (3 Bft) 91,49 %
25.09.2017 15:32 18,9 C 19,4 C 17,8 C 74 % 0 lf 1019,1 hPa 0,0 l/m 0 min 0 min 172 W/m 18,8 km/h (3 Bft) 97,87 %
25.09.2017 15:34 18,8 C 20,0 C 17,8 C 74 % 0 lf 1019,2 hPa 0,0 l/m 0 min 0 min 165 W/m 10,5 km/h (2 Bft) 93,48 %
25.09.2017 15:36 18,8 C 19,4 C 17,8 C 74 % 0 lf 1019,1 hPa 0,0 l/m 0 min 0 min 163 W/m 10,5 km/h (2 Bft) 93,62 %
25.09.2017 15:38 18,7 C 20,0 C 17,8 C 74 % 0 lf 1019,1 hPa 0,0 l/m 0 min 0 min 165 W/m 10,5 km/h (2 Bft) 95,74 %
25.09.2017 15:40 18,7 C 20,0 C 17,8 C 75 % 0 lf 1019,2 hPa 0,0 l/m 0 min 0 min 174 W/m 8,4 km/h (2 Bft) 97,87 %
25.09.2017 15:42 18,7 C 20,0 C 18,3 C 75 % 0 lf 1019,2 hPa 0,0 l/m 0 min 0 min 191 W/m 8,4 km/h (2 Bft) 89,36 %
25.09.2017 15:44 18,7 C 20,6 C 18,3 C 75 % 0 lf 1019,1 hPa 0,0 l/m 0 min 0 min 198 W/m 14,6 km/h (3 Bft) 89,36 %
25.09.2017 15:46 18,7 C 20,0 C 18,3 C 75 % 0 lf 1019,1 hPa 0,0 l/m 0 min 0 min 207 W/m 10,5 km/h (2 Bft) 93,48 %
25.09.2017 15:48 18,7 C 20,6 C 18,3 C 75 % 0 lf 1019,1 hPa 0,0 l/m 0 min 0 min 219 W/m 16,7 km/h (3 Bft) 91,49 %
25.09.2017 15:50 18,7 C 20,6 C 18,9 C 75 % 0 lf 1019,2 hPa 0,0 l/m 0 min 0 min 236 W/m 8,4 km/h (2 Bft) 93,22 %
25.09.2017 15:52 18,7 C 21,7 C 19,4 C 76 % 0 lf 1019,2 hPa 0,0 l/m 2 min 0 min 276 W/m 14,6 km/h (3 Bft) 100,00 %
25.09.2017 15:54 18,7 C 22,8 C 19,4 C 76 % 0 lf 1019,1 hPa 0,0 l/m 2 min 0 min 389 W/m 12,6 km/h (3 Bft) 97,87 %
25.09.2017 15:56 18,7 C 23,3 C 19,4 C 74 % 0 lf 1019,2 hPa 0,0 l/m 2 min 0 min 360 W/m 12,6 km/h (3 Bft) 97,83 %
25.09.2017 15:58 18,8 C 23,3 C 18,9 C 74 % 0 lf 1019,1 hPa 0,0 l/m 2 min 0 min 352 W/m 14,6 km/h (3 Bft) 95,74 %
25.09.2017 16:00 18,8 C 23,3 C 18,9 C 74 % 0 lf 1019,1 hPa 0,0 l/m 2 min 0 min 327 W/m 14,6 km/h (3 Bft) 97,87 %
25.09.2017 16:02 18,8 C 25,6 C 19,4 C 74 % 0 lf 1019,1 hPa 0,0 l/m 2 min 0 min 570 W/m 10,5 km/h (2 Bft) 93,62 %
25.09.2017 16:04 18,9 C 25,6 C 18,9 C 74 % 0 lf 1019,0 hPa 0,0 l/m 2 min 0 min 546 W/m 14,6 km/h (3 Bft) 95,74 %
25.09.2017 16:06 18,9 C 26,1 C 18,9 C 73 % 0 lf 1019,0 hPa 0,0 l/m 2 min 0 min 528 W/m 12,6 km/h (3 Bft) 97,87 %
25.09.2017 16:08 19,0 C 26,7 C 18,9 C 74 % 0 lf 1019,0 hPa 0,0 l/m 2 min 0 min 506 W/m 18,8 km/h (3 Bft) 97,83 %
25.09.2017 16:10 19,1 C 26,1 C 18,3 C 72 % 0 lf 1019,0 hPa 0,0 l/m 2 min 0 min 483 W/m 20,9 km/h (4 Bft) 95,74 %
25.09.2017 16:12 19,1 C 25,6 C 18,3 C 71 % 0 lf 1019,0 hPa 0,0 l/m 2 min 0 min 464 W/m 16,7 km/h (3 Bft) 97,87 %
25.09.2017 16:14 19,2 C 26,7 C 18,3 C 71 % 0 lf 1019,0 hPa 0,0 l/m 2 min 0 min 448 W/m 12,6 km/h (3 Bft) 93,62 %
25.09.2017 16:16 19,3 C 27,2 C 18,3 C 71 % 0 lf 1019,0 hPa 0,0 l/m 2 min 0 min 435 W/m 16,7 km/h (3 Bft) 91,49 %
25.09.2017 16:18 19,3 C 26,7 C 18,3 C 71 % 0 lf 1019,0 hPa 0,0 l/m 2 min 0 min 427 W/m 14,6 km/h (3 Bft) 95,74 %
25.09.2017 16:20 19,4 C 26,1 C 18,3 C 71 % 0 lf 1019,0 hPa 0,0 l/m 2 min 0 min 422 W/m 6,3 km/h (2 Bft) 94,83 %
25.09.2017 16:22 19,6 C 25,6 C 18,3 C 70 % 0 lf 1019,0 hPa 0,0 l/m 2 min 0 min 413 W/m 8,4 km/h (2 Bft) 100,00 %
25.09.2017 16:24 19,7 C 25,6 C 18,3 C 70 % 0 lf 1018,9 hPa 0,0 l/m 2 min 0 min 411 W/m 8,4 km/h (2 Bft) 100,00 %
25.09.2017 16:26 19,7 C 26,7 C 18,3 C 69 % 0 lf 1018,9 hPa 0,0 l/m 2 min 0 min 408 W/m 12,6 km/h (3 Bft) 93,62 %
25.09.2017 16:28 19,8 C 26,1 C 18,3 C 69 % 0 lf 1019,0 hPa 0,0 l/m 2 min 0 min 406 W/m 12,6 km/h (3 Bft) 95,74 %
25.09.2017 16:30 19,9 C 26,1 C 18,3 C 69 % 0 lf 1018,9 hPa 0,0 l/m 2 min 0 min 403 W/m 14,6 km/h (3 Bft) 97,87 %
25.09.2017 16:32 19,9 C 26,1 C 18,3 C 69 % 0 lf 1019,0 hPa 0,0 l/m 2 min 0 min 397 W/m 16,7 km/h (3 Bft) 91,30 %
25.09.2017 16:34 20,0 C 25,6 C 18,3 C 69 % 0 lf 1019,0 hPa 0,0 l/m 2 min 0 min 390 W/m 14,6 km/h (3 Bft) 93,62 %
25.09.2017 16:36 20,1 C 25,6 C 17,8 C 68 % 0 lf 1019,0 hPa 0,0 l/m 2 min 0 min 385 W/m 10,5 km/h (2 Bft) 95,74 %
25.09.2017 16:38 20,1 C 25,6 C 17,8 C 68 % 0 lf 1019,0 hPa 0,0 l/m 2 min 0 min 383 W/m 14,6 km/h (3 Bft) 95,74 %
25.09.2017 16:40 20,2 C 25,0 C 17,8 C 68 % 0 lf 1019,1 hPa 0,0 l/m 2 min 0 min 375 W/m 14,6 km/h (3 Bft) 95,74 %
25.09.2017 16:42 20,2 C 25,6 C 17,8 C 68 % 0 lf 1019,1 hPa 0,0 l/m 2 min 0 min 371 W/m 8,4 km/h (2 Bft) 95,74 %
25.09.2017 16:44 20,2 C 25,0 C 17,8 C 68 % 0 lf 1019,1 hPa 0,0 l/m 2 min 0 min 370 W/m 4,2 km/h (1 Bft) 89,13 %
25.09.2017 16:46 20,3 C 25,0 C 17,8 C 68 % 0 lf 1019,1 hPa 0,0 l/m 2 min 0 min 359 W/m 16,7 km/h (3 Bft) 93,62 %
25.09.2017 16:48 20,3 C 25,0 C 17,8 C 70 % 0 lf 1019,0 hPa 0,0 l/m 2 min 0 min 362 W/m 16,7 km/h (3 Bft) 91,49 %
25.09.2017 16:50 20,3 C 24,4 C 17,8 C 70 % 0 lf 1019,0 hPa 0,0 l/m 2 min 0 min 369 W/m 16,7 km/h (3 Bft) 93,62 %
25.09.2017 16:52 20,3 C 23,9 C 17,8 C 70 % 0 lf 1019,0 hPa 0,0 l/m 2 min 0 min 244 W/m 18,8 km/h (3 Bft) 93,62 %
25.09.2017 16:54 20,3 C 23,3 C 17,8 C 69 % 0 lf 1019,0 hPa 0,0 l/m 2 min 0 min 314 W/m 20,9 km/h (4 Bft) 93,62 %
25.09.2017 16:56 20,2 C 23,9 C 17,8 C 69 % 0 lf 1019,0 hPa 0,0 l/m 2 min 0 min 366 W/m 14,6 km/h (3 Bft) 93,48 %
25.09.2017 16:58 20,2 C 23,3 C 17,8 C 70 % 0 lf 1019,0 hPa 0,0 l/m 2 min 0 min 367 W/m 10,5 km/h (2 Bft) 93,62 %
25.09.2017 17:00 20,2 C 22,2 C 17,8 C 69 % 0 lf 1019,0 hPa 0,0 l/m 2 min 0 min 341 W/m 16,7 km/h (3 Bft) 93,62 %
25.09.2017 17:02 20,2 C 22,2 C 17,8 C 70 % 0 lf 1019,0 hPa 0,0 l/m 2 min 0 min 302 W/m 14,6 km/h (3 Bft) 97,87 %
25.09.2017 17:04 20,1 C 22,2 C 17,8 C 70 % 0 lf 1019,0 hPa 0,0 l/m 2 min 0 min 303 W/m 16,7 km/h (3 Bft) 95,74 %
25.09.2017 17:06 20,1 C 21,7 C 17,8 C 70 % 0 lf 1019,1 hPa 0,0 l/m 2 min 0 min 252 W/m 10,5 km/h (2 Bft) 93,62 %
25.09.2017 17:08 20,1 C 20,6 C 17,8 C 70 % 0 lf 1019,1 hPa 0,0 l/m 0 min 0 min 149 W/m 18,8 km/h (3 Bft) 89,13 %
25.09.2017 17:10 20,0 C 20,6 C 17,8 C 70 % 0 lf 1019,1 hPa 0,0 l/m 2 min 0 min 246 W/m 10,5 km/h (2 Bft) 89,36 %
25.09.2017 17:12 20,0 C 20,6 C 17,8 C 70 % 0 lf 1019,1 hPa 0,0 l/m 0 min 0 min 129 W/m 14,6 km/h (3 Bft) 93,62 %
25.09.2017 17:14 19,9 C 20,0 C 17,2 C 69 % 0 lf 1019,1 hPa 0,0 l/m 0 min 0 min 121 W/m 14,6 km/h (3 Bft) 91,49 %
25.09.2017 17:16 19,9 C 20,0 C 17,2 C 69 % 0 lf 1019,1 hPa 0,0 l/m 0 min 0 min 125 W/m 14,6 km/h (3 Bft) 90,00 %
25.09.2017 17:18 19,8 C 20,0 C 17,2 C 70 % 0 lf 1019,1 hPa 0,0 l/m 0 min 0 min 120 W/m 10,5 km/h (2 Bft) 87,23 %
25.09.2017 17:20 19,8 C 19,4 C 17,2 C 70 % 0 lf 1019,1 hPa 0,0 l/m 0 min 0 min 125 W/m 8,4 km/h (2 Bft) 91,49 %
25.09.2017 17:22 19,7 C 20,0 C 17,2 C 70 % 0 lf 1019,1 hPa 0,0 l/m 0 min 0 min 127 W/m 6,3 km/h (2 Bft) 93,62 %
25.09.2017 17:24 19,7 C 20,0 C 17,2 C 71 % 0 lf 1019,1 hPa 0,0 l/m 2 min 0 min 158 W/m 6,3 km/h (2 Bft) 91,49 %
25.09.2017 17:26 19,7 C 19,4 C 17,2 C 71 % 0 lf 1019,1 hPa 0,0 l/m 0 min 0 min 121 W/m 6,3 km/h (2 Bft) 91,30 %
25.09.2017 17:28 19,6 C 19,4 C 17,2 C 71 % 0 lf 1019,1 hPa 0,0 l/m 0 min 0 min 111 W/m 8,4 km/h (2 Bft) 89,36 %
25.09.2017 17:30 19,6 C 19,4 C 17,2 C 71 % 0 lf 1019,1 hPa 0,0 l/m 0 min 0 min 103 W/m 6,3 km/h (2 Bft) 89,36 %
25.09.2017 17:32 19,5 C 19,4 C 17,2 C 71 % 0 lf 1019,1 hPa 0,0 l/m 0 min 0 min 97 W/m 6,3 km/h (2 Bft) 93,62 %
25.09.2017 17:34 19,4 C 19,4 C 17,2 C 71 % 0 lf 1019,0 hPa 0,0 l/m 0 min 0 min 98 W/m 10,5 km/h (2 Bft) 89,36 %
25.09.2017 17:36 19,4 C 19,4 C 17,2 C 71 % 0 lf 1019,0 hPa 0,0 l/m 0 min 0 min 103 W/m 8,4 km/h (2 Bft) 93,62 %
25.09.2017 17:38 19,3 C 19,4 C 17,2 C 71 % 0 lf 1019,1 hPa 0,0 l/m 0 min 0 min 106 W/m 6,3 km/h (2 Bft) 93,48 %
25.09.2017 17:40 19,3 C 19,4 C 17,2 C 72 % 0 lf 1019,1 hPa 0,0 l/m 0 min 0 min 108 W/m 6,3 km/h (2 Bft) 93,62 %
25.09.2017 17:42 19,3 C 19,4 C 17,8 C 72 % 0 lf 1019,0 hPa 0,0 l/m 0 min 0 min 106 W/m 8,4 km/h (2 Bft) 93,62 %
25.09.2017 17:44 19,2 C 19,4 C 17,8 C 72 % 0 lf 1019,0 hPa 0,0 l/m 0 min 0 min 100 W/m 10,5 km/h (2 Bft) 91,49 %
25.09.2017 17:46 19,2 C 18,9 C 17,8 C 72 % 0 lf 1019,1 hPa 0,0 l/m 0 min 0 min 100 W/m 10,5 km/h (2 Bft) 91,49 %
25.09.2017 17:48 19,2 C 19,4 C 17,8 C 72 % 0 lf 1019,1 hPa 0,0 l/m 0 min 0 min 104 W/m 10,5 km/h (2 Bft) 89,13 %
25.09.2017 17:50 19,1 C 19,4 C 17,8 C 72 % 0 lf 1019,2 hPa 0,0 l/m 0 min 0 min 103 W/m 14,6 km/h (3 Bft) 93,62 %
25.09.2017 17:52 19,1 C 19,4 C 17,8 C 73 % 0 lf 1019,1 hPa 0,0 l/m 0 min 0 min 104 W/m 14,6 km/h (3 Bft) 89,36 %
25.09.2017 17:54 19,1 C 18,9 C 17,8 C 73 % 0 lf 1019,1 hPa 0,0 l/m 0 min 0 min 105 W/m 16,7 km/h (3 Bft) 91,49 %
25.09.2017 17:56 19,0 C 18,9 C 17,2 C 72 % 0 lf 1019,1 hPa 0,0 l/m 0 min 0 min 107 W/m 18,8 km/h (3 Bft) 93,62 %
25.09.2017 17:58 18,9 C 18,9 C 17,2 C 72 % 0 lf 1019,2 hPa 0,0 l/m 2 min 0 min 110 W/m 12,6 km/h (3 Bft) 97,87 %
25.09.2017 18:00 18,9 C 18,9 C 17,2 C 72 % 0 lf 1019,1 hPa 0,0 l/m 2 min 0 min 196 W/m 10,5 km/h (2 Bft) 95,65 %
25.09.2017 18:02 18,9 C 18,9 C 17,2 C 73 % 0 lf 1019,1 hPa 0,0 l/m 0 min 0 min 102 W/m 6,3 km/h (2 Bft) 93,62 %
25.09.2017 18:04 18,9 C 18,9 C 17,2 C 73 % 0 lf 1019,1 hPa 0,0 l/m 0 min 0 min 96 W/m 8,4 km/h (2 Bft) 100,00 %
25.09.2017 18:06 18,9 C 18,9 C 17,2 C 73 % 0 lf 1019,1 hPa 0,0 l/m 0 min 0 min 91 W/m 6,3 km/h (2 Bft) 89,36 %
25.09.2017 18:10 18,8 C 18,9 C 17,2 C 73 % 0 lf 1019,0 hPa 0,0 l/m 4 min 0 min 94 W/m 8,4 km/h (2 Bft) 95,74 %
25.09.2017 18:12 18,8 C 18,9 C 17,2 C 74 % 0 lf 1019,1 hPa 0,0 l/m 2 min 0 min 99 W/m 8,4 km/h (2 Bft) 93,48 %
25.09.2017 18:14 18,8 C 18,9 C 17,2 C 74 % 0 lf 1019,1 hPa 0,0 l/m 2 min 0 min 112 W/m 10,5 km/h (2 Bft) 91,49 %
25.09.2017 18:16 18,8 C 18,9 C 16,7 C 74 % 0 lf 1019,1 hPa 0,0 l/m 2 min 0 min 120 W/m 8,4 km/h (2 Bft) 87,23 %
25.09.2017 18:18 18,8 C 18,9 C 16,7 C 73 % 0 lf 1019,1 hPa 0,0 l/m 2 min 0 min 126 W/m 10,5 km/h (2 Bft) 95,74 %
25.09.2017 18:20 18,7 C 18,9 C 16,7 C 73 % 0 lf 1019,1 hPa 0,0 l/m 2 min 0 min 142 W/m 12,6 km/h (3 Bft) 93,62 %
25.09.2017 18:22 18,7 C 18,9 C 17,2 C 72 % 0 lf 1019,1 hPa 0,0 l/m 2 min 0 min 117 W/m 12,6 km/h (3 Bft) 93,62 %
25.09.2017 18:24 18,7 C 18,9 C 16,7 C 72 % 0 lf 1019,1 hPa 0,0 l/m 2 min 0 min 98 W/m 14,6 km/h (3 Bft) 93,48 %
25.09.2017 18:26 18,7 C 18,9 C 16,7 C 72 % 0 lf 1019,1 hPa 0,0 l/m 2 min 0 min 89 W/m 12,6 km/h (3 Bft) 95,74 %
25.09.2017 18:28 18,7 C 18,9 C 16,7 C 72 % 0 lf 1019,1 hPa 0,0 l/m 2 min 0 min 91 W/m 8,4 km/h (2 Bft) 93,62 %
25.09.2017 18:30 18,7 C 18,3 C 16,7 C 72 % 0 lf 1019,1 hPa 0,0 l/m 2 min 0 min 91 W/m 10,5 km/h (2 Bft) 97,87 %
25.09.2017 18:32 18,7 C 18,3 C 16,7 C 72 % 0 lf 1019,1 hPa 0,0 l/m 2 min 0 min 87 W/m 10,5 km/h (2 Bft) 93,62 %
25.09.2017 18:34 18,7 C 18,3 C 16,7 C 72 % 0 lf 1019,1 hPa 0,0 l/m 2 min 0 min 80 W/m 10,5 km/h (2 Bft) 91,49 %
25.09.2017 18:36 18,7 C 18,3 C 16,1 C 73 % 0 lf 1019,1 hPa 0,0 l/m 2 min 0 min 73 W/m 6,3 km/h (2 Bft) 93,48 %
25.09.2017 18:38 18,7 C 18,3 C 16,1 C 73 % 0 lf 1019,1 hPa 0,0 l/m 2 min 0 min 65 W/m 6,3 km/h (2 Bft) 95,74 %
25.09.2017 18:40 18,7 C 18,3 C 16,1 C 73 % 0 lf 1019,1 hPa 0,0 l/m 2 min 0 min 59 W/m 10,5 km/h (2 Bft) 93,62 %
25.09.2017 18:42 18,6 C 18,3 C 16,1 C 74 % 0 lf 1019,0 hPa 0,0 l/m 2 min 0 min 51 W/m 6,3 km/h (2 Bft) 95,74 %
25.09.2017 18:44 18,6 C 18,3 C 15,6 C 73 % 0 lf 1019,1 hPa 0,0 l/m 0 min 0 min 47 W/m 12,6 km/h (3 Bft) 95,74 %
25.09.2017 18:46 18,6 C 17,8 C 15,6 C 73 % 0 lf 1019,1 hPa 0,0 l/m 0 min 0 min 44 W/m 10,5 km/h (2 Bft) 95,74 %
25.09.2017 18:48 18,6 C 17,8 C 15,6 C 73 % 0 lf 1019,1 hPa 0,0 l/m 2 min 0 min 43 W/m 10,5 km/h (2 Bft) 95,65 %
25.09.2017 18:50 18,6 C 17,8 C 15,6 C 73 % 0 lf 1019,1 hPa 0,0 l/m 2 min 0 min 41 W/m 8,4 km/h (2 Bft) 89,36 %
25.09.2017 18:52 18,5 C 17,2 C 15,6 C 73 % 0 lf 1019,1 hPa 0,0 l/m 2 min 0 min 40 W/m 8,4 km/h (2 Bft) 91,49 %
25.09.2017 18:54 18,5 C 17,2 C 15,6 C 73 % 0 lf 1019,2 hPa 0,0 l/m 2 min 0 min 40 W/m 10,5 km/h (2 Bft) 97,87 %
25.09.2017 18:56 18,4 C 17,2 C 15,0 C 74 % 0 lf 1019,2 hPa 0,0 l/m 2 min 0 min 38 W/m 8,4 km/h (2 Bft) 93,62 %
25.09.2017 18:58 18,4 C 17,2 C 15,0 C 74 % 0 lf 1019,2 hPa 0,0 l/m 2 min 0 min 64 W/m 8,4 km/h (2 Bft) 95,65 %
25.09.2017 19:00 18,4 C 16,7 C 15,0 C 74 % 0 lf 1019,2 hPa 0,0 l/m 2 min 0 min 58 W/m 8,4 km/h (2 Bft) 93,62 %
25.09.2017 19:02 18,3 C 16,7 C 14,4 C 74 % 0 lf 1019,2 hPa 0,0 l/m 2 min 0 min 52 W/m 8,4 km/h (2 Bft) 89,36 %
25.09.2017 19:04 18,3 C 16,7 C 14,4 C 74 % 0 lf 1019,2 hPa 0,0 l/m 2 min 0 min 46 W/m 8,4 km/h (2 Bft) 93,62 %
25.09.2017 19:06 18,2 C 16,7 C 14,4 C 74 % 0 lf 1019,2 hPa 0,0 l/m 2 min 0 min 30 W/m 8,4 km/h (2 Bft) 87,23 %
25.09.2017 19:08 18,2 C 16,1 C 14,4 C 75 % 0 lf 1019,2 hPa 0,0 l/m 2 min 0 min 32 W/m 8,4 km/h (2 Bft) 87,23 %
25.09.2017 19:10 18,1 C 16,1 C 13,9 C 75 % 0 lf 1019,3 hPa 0,0 l/m 2 min 0 min 29 W/m 6,3 km/h (2 Bft) 93,48 %
25.09.2017 19:12 18,1 C 16,1 C 13,9 C 75 % 0 lf 1019,3 hPa 0,0 l/m 2 min 0 min 23 W/m 6,3 km/h (2 Bft) 95,74 %
25.09.2017 19:14 18,1 C 16,1 C 13,9 C 75 % 0 lf 1019,3 hPa 0,0 l/m 0 min 0 min 17 W/m 8,4 km/h (2 Bft) 93,62 %
25.09.2017 19:16 18,0 C 15,6 C 13,9 C 76 % 0 lf 1019,3 hPa 0,0 l/m 0 min 0 min 12 W/m 4,2 km/h (1 Bft) 89,36 %
25.09.2017 19:18 17,9 C 15,6 C 13,3 C 76 % 0 lf 1019,3 hPa 0,0 l/m 0 min 0 min 6 W/m 6,3 km/h (2 Bft) 91,49 %
25.09.2017 19:20 17,9 C 15,6 C 13,3 C 76 % 0 lf 1019,3 hPa 0,0 l/m 0 min 0 min 0 W/m 4,2 km/h (1 Bft) 91,49 %
25.09.2017 19:22 17,8 C 15,6 C 13,3 C 76 % 0 lf 1019,3 hPa 0,0 l/m 0 min 0 min 0 W/m 8,4 km/h (2 Bft) 93,48 %
25.09.2017 19:24 17,8 C 15,6 C 13,3 C 76 % 0 lf 1019,4 hPa 0,0 l/m 0 min 0 min 0 W/m 4,2 km/h (1 Bft) 93,62 %
25.09.2017 19:26 17,7 C 15,6 C 13,3 C 76 % 0 lf 1019,4 hPa 0,0 l/m 0 min 0 min 0 W/m 4,2 km/h (1 Bft) 91,49 %
25.09.2017 19:28 17,7 C 15,0 C 13,3 C 76 % 0 lf 1019,4 hPa 0,0 l/m 0 min 0 min 0 W/m 4,2 km/h (1 Bft) 91,49 %
25.09.2017 19:30 17,6 C 15,0 C 12,8 C 77 % 0 lf 1019,4 hPa 0,0 l/m 0 min 0 min 0 W/m 6,3 km/h (2 Bft) 93,62 %
25.09.2017 19:32 17,6 C 15,0 C 12,8 C 77 % 0 lf 1019,4 hPa 0,0 l/m 0 min 0 min 0 W/m 6,3 km/h (2 Bft) 93,62 %
25.09.2017 19:34 17,5 C 15,0 C 12,8 C 77 % 0 lf 1019,5 hPa 0,0 l/m 0 min 0 min 0 W/m 4,2 km/h (1 Bft) 95,65 %
25.09.2017 19:36 17,4 C 15,0 C 12,8 C 77 % 0 lf 1019,4 hPa 0,0 l/m 0 min 0 min 0 W/m 4,2 km/h (1 Bft) 91,49 %
25.09.2017 19:38 17,3 C 15,0 C 12,8 C 77 % 0 lf 1019,5 hPa 0,0 l/m 0 min 0 min 0 W/m 6,3 km/h (2 Bft) 91,49 %
25.09.2017 19:40 17,3 C 15,0 C 12,8 C 77 % 0 lf 1019,5 hPa 0,0 l/m 0 min 0 min 0 W/m 8,4 km/h (2 Bft) 97,87 %
25.09.2017 19:42 17,2 C 14,4 C 12,8 C 78 % 0 lf 1019,5 hPa 0,0 l/m 0 min 0 min 0 W/m 6,3 km/h (2 Bft) 85,11 %
25.09.2017 19:44 17,2 C 14,4 C 12,8 C 78 % 0 lf 1019,5 hPa 0,0 l/m 0 min 0 min 0 W/m 6,3 km/h (2 Bft) 93,62 %
25.09.2017 19:46 17,1 C 14,4 C 12,2 C 78 % 0 lf 1019,5 hPa 0,0 l/m 0 min 0 min 0 W/m 4,2 km/h (1 Bft) 93,48 %
25.09.2017 19:48 17,0 C 14,4 C 12,2 C 78 % 0 lf 1019,5 hPa 0,0 l/m 0 min 0 min 0 W/m 6,3 km/h (2 Bft) 93,62 %
25.09.2017 19:50 16,9 C 14,4 C 12,2 C 79 % 0 lf 1019,5 hPa 0,0 l/m 0 min 0 min 0 W/m 2,1 km/h (1 Bft) 93,62 %
25.09.2017 19:52 16,9 C 14,4 C 12,2 C 79 % 0 lf 1019,6 hPa 0,0 l/m 0 min 0 min 0 W/m 4,2 km/h (1 Bft) 97,87 %
25.09.2017 19:54 16,8 C 14,4 C 12,2 C 79 % 0 lf 1019,6 hPa 0,0 l/m 0 min 0 min 0 W/m 4,2 km/h (1 Bft) 95,74 %
25.09.2017 19:56 16,7 C 14,4 C 12,2 C 79 % 0 lf 1019,5 hPa 0,0 l/m 0 min 0 min 0 W/m 4,2 km/h (1 Bft) 91,49 %
25.09.2017 19:58 16,7 C 13,9 C 12,2 C 79 % 0 lf 1019,5 hPa 0,0 l/m 0 min 0 min 0 W/m 4,2 km/h (1 Bft) 93,48 %
25.09.2017 20:00 16,6 C 14,4 C 12,2 C 80 % 0 lf 1019,6 hPa 0,0 l/m 0 min 0 min 0 W/m 4,2 km/h (1 Bft) 100,00 %
25.09.2017 20:02 16,6 C 13,9 C 12,2 C 80 % 0 lf 1019,6 hPa 0,0 l/m 0 min 0 min 0 W/m 6,3 km/h (2 Bft) 93,62 %
25.09.2017 20:04 16,5 C 13,9 C 12,2 C 80 % 0 lf 1019,5 hPa 0,0 l/m 0 min 0 min 1 W/m 4,2 km/h (1 Bft) 93,62 %
25.09.2017 20:06 16,4 C 13,9 C 12,2 C 80 % 0 lf 1019,6 hPa 0,0 l/m 0 min 0 min 2 W/m 4,2 km/h (1 Bft) 93,62 %
25.09.2017 20:08 16,3 C 13,9 C 12,2 C 80 % 0 lf 1019,5 hPa 0,0 l/m 0 min 0 min 4 W/m 6,3 km/h (2 Bft) 95,74 %
25.09.2017 20:10 16,3 C 13,9 C 11,7 C 81 % 0 lf 1019,6 hPa 0,0 l/m 0 min 0 min 3 W/m 6,3 km/h (2 Bft) 97,83 %
25.09.2017 20:12 16,2 C 13,9 C 11,7 C 81 % 0 lf 1019,6 hPa 0,0 l/m 0 min 0 min 5 W/m 6,3 km/h (2 Bft) 95,74 %
25.09.2017 20:14 16,2 C 13,9 C 11,7 C 81 % 0 lf 1019,7 hPa 0,0 l/m 0 min 0 min 5 W/m 6,3 km/h (2 Bft) 93,62 %
25.09.2017 20:16 16,1 C 13,9 C 11,7 C 81 % 0 lf 1019,6 hPa 0,0 l/m 0 min 0 min 4 W/m 6,3 km/h (2 Bft) 95,74 %
25.09.2017 20:18 16,1 C 13,9 C 11,7 C 81 % 0 lf 1019,7 hPa 0,0 l/m 0 min 0 min 4 W/m 6,3 km/h (2 Bft) 97,87 %
25.09.2017 20:20 16,0 C 13,9 C 11,7 C 82 % 0 lf 1019,7 hPa 0,0 l/m 0 min 0 min 3 W/m 6,3 km/h (2 Bft) 97,87 %
25.09.2017 20:22 15,9 C 13,9 C 11,7 C 82 % 0 lf 1019,6 hPa 0,0 l/m 0 min 0 min 0 W/m 6,3 km/h (2 Bft) 95,65 %
25.09.2017 20:24 15,9 C 13,9 C 11,7 C 82 % 0 lf 1019,7 hPa 0,0 l/m 0 min 0 min 2 W/m 6,3 km/h (2 Bft) 95,74 %
25.09.2017 20:26 15,8 C 13,9 C 11,7 C 82 % 0 lf 1019,7 hPa 0,0 l/m 0 min 0 min 0 W/m 6,3 km/h (2 Bft) 95,74 %
25.09.2017 20:28 15,8 C 13,9 C 11,7 C 82 % 0 lf 1019,7 hPa 0,0 l/m 0 min 0 min 0 W/m 8,4 km/h (2 Bft) 91,49 %
25.09.2017 20:30 15,7 C 13,3 C 11,7 C 82 % 0 lf 1019,7 hPa 0,0 l/m 0 min 0 min 0 W/m 4,2 km/h (1 Bft) 95,74 %
25.09.2017 20:32 15,7 C 13,3 C 11,7 C 82 % 0 lf 1019,7 hPa 0,0 l/m 0 min 0 min 0 W/m 6,3 km/h (2 Bft) 91,30 %
25.09.2017 20:34 15,6 C 13,3 C 11,7 C 83 % 0 lf 1019,7 hPa 0,0 l/m 0 min 0 min 0 W/m 4,2 km/h (1 Bft) 93,62 %
25.09.2017 20:36 15,6 C 13,3 C 11,7 C 83 % 0 lf 1019,7 hPa 0,0 l/m 0 min 0 min 0 W/m 4,2 km/h (1 Bft) 91,49 %
25.09.2017 20:38 15,6 C 13,3 C 11,7 C 83 % 0 lf 1019,7 hPa 0,0 l/m 0 min 0 min 0 W/m 2,1 km/h (1 Bft) 93,62 %
25.09.2017 20:40 15,5 C 13,3 C 11,7 C 83 % 0 lf 1019,7 hPa 0,0 l/m 0 min 0 min 0 W/m 2,1 km/h (1 Bft) 95,74 %
25.09.2017 20:42 15,4 C 13,3 C 11,7 C 83 % 0 lf 1019,7 hPa 0,0 l/m 0 min 0 min 0 W/m 4,2 km/h (1 Bft) 91,49 %
25.09.2017 20:44 15,4 C 13,3 C 11,7 C 83 % 0 lf 1019,7 hPa 0,0 l/m 0 min 0 min 0 W/m 4,2 km/h (1 Bft) 91,30 %
25.09.2017 20:46 15,3 C 13,3 C 11,1 C 83 % 0 lf 1019,7 hPa 0,0 l/m 0 min 0 min 0 W/m 4,2 km/h (1 Bft) 95,74 %
25.09.2017 20:48 15,3 C 12,8 C 11,1 C 84 % 0 lf 1019,7 hPa 0,0 l/m 0 min 0 min 0 W/m 4,2 km/h (1 Bft) 93,62 %
25.09.2017 20:50 15,2 C 12,8 C 11,1 C 84 % 0 lf 1019,8 hPa 0,0 l/m 0 min 0 min 0 W/m 4,2 km/h (1 Bft) 91,49 %
25.09.2017 20:52 15,2 C 12,8 C 11,1 C 84 % 0 lf 1019,8 hPa 0,0 l/m 0 min 0 min 0 W/m 2,1 km/h (1 Bft) 95,74 %
25.09.2017 20:54 15,2 C 12,8 C 11,1 C 84 % 0 lf 1019,8 hPa 0,0 l/m 0 min 0 min 0 W/m 4,2 km/h (1 Bft) 97,87 %
25.09.2017 20:56 15,1 C 12,8 C 11,1 C 84 % 0 lf 1019,8 hPa 0,0 l/m 0 min 0 min 0 W/m 6,3 km/h (2 Bft) 95,65 %
25.09.2017 20:58 15,1 C 12,8 C 11,1 C 84 % 0 lf 1019,7 hPa 0,0 l/m 0 min 0 min 0 W/m 0,0 km/h (0 Bft) 91,49 %
25.09.2017 21:00 15,1 C 12,8 C 11,1 C 84 % 0 lf 1019,8 hPa 0,0 l/m 0 min 0 min 0 W/m 0,0 km/h (0 Bft) 95,74 %
25.09.2017 21:02 15,0 C 12,8 C 11,1 C 84 % 0 lf 1019,7 hPa 0,0 l/m 0 min 0 min 0 W/m 0,0 km/h (0 Bft) 93,62 %
25.09.2017 21:04 14,9 C 12,8 C 10,6 C 84 % 0 lf 1019,8 hPa 0,0 l/m 0 min 0 min 0 W/m 2,1 km/h (1 Bft) 95,74 %
25.09.2017 21:06 14,9 C 12,2 C 10,6 C 84 % 0 lf 1019,8 hPa 0,0 l/m 0 min 0 min 0 W/m 0,0 km/h (0 Bft) 87,23 %
25.09.2017 21:08 14,8 C 12,2 C 10,6 C 84 % 0 lf 1019,8 hPa 0,0 l/m 0 min 0 min 0 W/m 0,0 km/h (0 Bft) 93,48 %
25.09.2017 21:10 14,8 C 12,2 C 10,6 C 84 % 0 lf 1019,8 hPa 0,0 l/m 0 min 0 min 0 W/m 2,1 km/h (1 Bft) 89,36 %
25.09.2017 21:12 14,7 C 12,2 C 10,6 C 85 % 0 lf 1019,8 hPa 0,0 l/m 0 min 0 min 0 W/m 2,1 km/h (1 Bft) 93,62 %
25.09.2017 21:14 14,7 C 12,2 C 10,6 C 84 % 0 lf 1019,8 hPa 0,0 l/m 0 min 0 min 0 W/m 2,1 km/h (1 Bft) 95,74 %
25.09.2017 21:16 14,7 C 12,2 C 10,6 C 84 % 0 lf 1019,8 hPa 0,0 l/m 0 min 0 min 0 W/m 2,1 km/h (1 Bft) 85,11 %
25.09.2017 21:18 14,6 C 12,2 C 10,6 C 85 % 0 lf 1019,8 hPa 0,0 l/m 0 min 0 min 0 W/m 0,0 km/h (0 Bft) 91,49 %
25.09.2017 21:20 14,6 C 12,2 C 10,6 C 85 % 0 lf 1019,8 hPa 0,0 l/m 0 min 0 min 0 W/m 2,1 km/h (1 Bft) 95,65 %
25.09.2017 21:22 14,5 C 12,2 C 10,6 C 85 % 1 lf 1019,7 hPa 0,0 l/m 0 min 0 min 0 W/m 0,0 km/h (0 Bft) 85,11 %
25.09.2017 21:24 14,4 C 12,2 C 10,6 C 85 % 1 lf 1019,8 hPa 0,0 l/m 0 min 0 min 0 W/m 2,1 km/h (1 Bft) 91,49 %
25.09.2017 21:26 14,4 C 11,7 C 10,6 C 85 % 1 lf 1019,8 hPa 0,0 l/m 0 min 0 min 1 W/m 2,1 km/h (1 Bft) 91,49 %
25.09.2017 21:28 14,3 C 11,7 C 10,6 C 85 % 1 lf 1019,8 hPa 0,0 l/m 0 min 0 min 0 W/m 4,2 km/h (1 Bft) 87,23 %
25.09.2017 21:30 14,2 C 12,2 C 10,6 C 85 % 1 lf 1019,8 hPa 0,0 l/m 0 min 0 min 0 W/m 6,3 km/h (2 Bft) 93,62 %
25.09.2017 21:32 14,2 C 11,7 C 10,6 C 86 % 1 lf 1019,8 hPa 0,0 l/m 0 min 0 min 5 W/m 4,2 km/h (1 Bft) 91,30 %
25.09.2017 21:34 14,2 C 12,2 C 10,6 C 86 % 1 lf 1019,8 hPa 0,0 l/m 0 min 0 min 5 W/m 4,2 km/h (1 Bft) 95,74 %
25.09.2017 21:36 14,2 C 11,7 C 10,6 C 86 % 1 lf 1019,8 hPa 0,0 l/m 0 min 0 min 1 W/m 4,2 km/h (1 Bft) 95,74 %
25.09.2017 21:38 14,2 C 11,7 C 10,6 C 86 % 1 lf 1019,8 hPa 0,0 l/m 0 min 0 min 0 W/m 2,1 km/h (1 Bft) 91,49 %
25.09.2017 21:40 14,1 C 11,7 C 10,6 C 86 % 1 lf 1019,8 hPa 0,0 l/m 0 min 0 min 4 W/m 2,1 km/h (1 Bft) 91,49 %
25.09.2017 21:42 14,1 C 11,7 C 10,6 C 86 % 1 lf 1019,8 hPa 0,0 l/m 0 min 0 min 5 W/m 4,2 km/h (1 Bft) 91,49 %
25.09.2017 21:44 14,0 C 11,7 C 10,6 C 86 % 1 lf 1019,8 hPa 0,0 l/m 0 min 0 min 5 W/m 6,3 km/h (2 Bft) 91,30 %
25.09.2017 21:46 13,9 C 12,2 C 10,6 C 86 % 1 lf 1019,8 hPa 0,0 l/m 0 min 0 min 5 W/m 6,3 km/h (2 Bft) 91,49 %
25.09.2017 21:48 13,9 C 12,2 C 10,6 C 86 % 1 lf 1019,8 hPa 0,0 l/m 0 min 0 min 3 W/m 4,2 km/h (1 Bft) 97,87 %
25.09.2017 21:50 13,9 C 12,2 C 10,6 C 86 % 1 lf 1019,8 hPa 0,0 l/m 0 min 0 min 0 W/m 6,3 km/h (2 Bft) 93,62 %
25.09.2017 21:52 13,8 C 12,2 C 10,6 C 87 % 1 lf 1019,7 hPa 0,0 l/m 0 min 0 min 0 W/m 4,2 km/h (1 Bft) 93,62 %
25.09.2017 21:54 13,8 C 12,2 C 10,6 C 87 % 1 lf 1019,8 hPa 0,0 l/m 0 min 0 min 0 W/m 4,2 km/h (1 Bft) 95,65 %
25.09.2017 21:56 13,7 C 12,2 C 10,6 C 87 % 1 lf 1019,8 hPa 0,0 l/m 0 min 0 min 2 W/m 4,2 km/h (1 Bft) 95,74 %
25.09.2017 21:58 13,7 C 11,7 C 10,6 C 87 % 1 lf 1019,8 hPa 0,0 l/m 0 min 0 min 0 W/m 4,2 km/h (1 Bft) 89,36 %
25.09.2017 22:00 13,7 C 11,7 C 10,0 C 87 % 1 lf 1019,8 hPa 0,0 l/m 0 min 0 min 0 W/m 4,2 km/h (1 Bft) 95,74 %
25.09.2017 22:02 13,6 C 11,7 C 10,0 C 87 % 1 lf 1019,8 hPa 0,0 l/m 0 min 0 min 1 W/m 4,2 km/h (1 Bft) 97,87 %
25.09.2017 22:04 13,6 C 11,7 C 10,0 C 87 % 1 lf 1019,8 hPa 0,0 l/m 0 min 0 min 5 W/m 4,2 km/h (1 Bft) 95,74 %
25.09.2017 22:06 13,6 C 11,7 C 10,0 C 87 % 1 lf 1019,8 hPa 0,0 l/m 0 min 0 min 5 W/m 4,2 km/h (1 Bft) 91,30 %
25.09.2017 22:08 13,6 C 11,7 C 10,0 C 87 % 1 lf 1019,8 hPa 0,0 l/m 0 min 0 min 5 W/m 2,1 km/h (1 Bft) 93,62 %
25.09.2017 22:10 13,5 C 11,7 C 10,0 C 87 % 1 lf 1019,7 hPa 0,0 l/m 0 min 0 min 5 W/m 0,0 km/h (0 Bft) 93,62 %
25.09.2017 22:12 13,4 C 11,7 C 10,0 C 87 % 1 lf 1019,8 hPa 0,0 l/m 0 min 0 min 5 W/m 0,0 km/h (0 Bft) 89,36 %
25.09.2017 22:14 13,4 C 11,7 C 10,0 C 87 % 1 lf 1019,8 hPa 0,0 l/m 0 min 0 min 2 W/m 4,2 km/h (1 Bft) 95,74 %
25.09.2017 22:16 13,4 C 11,1 C 10,0 C 87 % 1 lf 1019,7 hPa 0,0 l/m 0 min 0 min 0 W/m 2,1 km/h (1 Bft) 97,87 %
25.09.2017 22:18 13,4 C 11,1 C 10,0 C 87 % 1 lf 1019,8 hPa 0,0 l/m 0 min 0 min 5 W/m 4,2 km/h (1 Bft) 93,48 %
25.09.2017 22:20 13,3 C 11,7 C 10,0 C 87 % 1 lf 1019,8 hPa 0,0 l/m 0 min 0 min 5 W/m 4,2 km/h (1 Bft) 91,49 %
25.09.2017 22:22 13,3 C 11,7 C 10,0 C 87 % 1 lf 1019,8 hPa 0,0 l/m 0 min 0 min 5 W/m 4,2 km/h (1 Bft) 95,74 %
25.09.2017 22:24 13,3 C 11,1 C 10,0 C 87 % 1 lf 1019,8 hPa 0,0 l/m 0 min 0 min 5 W/m 4,2 km/h (1 Bft) 95,74 %
25.09.2017 22:26 13,2 C 11,1 C 10,0 C 87 % 1 lf 1019,7 hPa 0,0 l/m 0 min 0 min 5 W/m 4,2 km/h (1 Bft) 93,62 %
25.09.2017 22:28 13,2 C 11,1 C 10,0 C 88 % 1 lf 1019,7 hPa 0,0 l/m 0 min 0 min 5 W/m 4,2 km/h (1 Bft) 95,74 %
25.09.2017 22:30 13,2 C 11,1 C 10,0 C 88 % 2 lf 1019,7 hPa 0,0 l/m 0 min 0 min 5 W/m 4,2 km/h (1 Bft) 89,13 %
25.09.2017 22:32 13,1 C 11,1 C 10,0 C 88 % 2 lf 1019,8 hPa 0,0 l/m 0 min 0 min 5 W/m 6,3 km/h (2 Bft) 93,62 %
25.09.2017 22:34 13,1 C 11,1 C 10,0 C 88 % 2 lf 1019,7 hPa 0,0 l/m 0 min 0 min 5 W/m 6,3 km/h (2 Bft) 95,74 %
25.09.2017 22:36 13,1 C 11,1 C 10,0 C 88 % 2 lf 1019,7 hPa 0,0 l/m 0 min 0 min 5 W/m 4,2 km/h (1 Bft) 93,62 %
25.09.2017 22:38 13,0 C 11,1 C 10,0 C 88 % 2 lf 1019,7 hPa 0,0 l/m 0 min 0 min 5 W/m 6,3 km/h (2 Bft) 93,62 %
25.09.2017 22:40 13,0 C 11,1 C 10,0 C 88 % 2 lf 1019,7 hPa 0,0 l/m 0 min 0 min 5 W/m 2,1 km/h (1 Bft) 95,74 %
25.09.2017 22:42 12,9 C 11,1 C 9,4 C 88 % 2 lf 1019,8 hPa 0,0 l/m 0 min 0 min 5 W/m 2,1 km/h (1 Bft) 97,83 %
25.09.2017 22:44 12,9 C 11,1 C 9,4 C 88 % 2 lf 1019,7 hPa 0,0 l/m 0 min 0 min 4 W/m 0,0 km/h (0 Bft) 91,49 %
25.09.2017 22:46 12,9 C 11,1 C 9,4 C 88 % 2 lf 1019,7 hPa 0,0 l/m 0 min 0 min 4 W/m 0,0 km/h (0 Bft) 93,62 %
25.09.2017 22:48 12,9 C 11,1 C 9,4 C 88 % 2 lf 1019,7 hPa 0,0 l/m 0 min 0 min 5 W/m 0,0 km/h (0 Bft) 100,00 %
25.09.2017 22:50 12,8 C 11,1 C 9,4 C 88 % 2 lf 1019,8 hPa 0,0 l/m 0 min 0 min 5 W/m 0,0 km/h (0 Bft) 100,00 %
25.09.2017 22:52 12,8 C 11,1 C 9,4 C 89 % 2 lf 1019,7 hPa 0,0 l/m 0 min 0 min 5 W/m 0,0 km/h (0 Bft) 95,65 %
25.09.2017 22:54 12,8 C 11,1 C 9,4 C 89 % 2 lf 1019,8 hPa 0,0 l/m 0 min 0 min 5 W/m 2,1 km/h (1 Bft) 97,87 %
25.09.2017 22:56 12,8 C 10,6 C 9,4 C 89 % 2 lf 1019,8 hPa 0,0 l/m 0 min 0 min 5 W/m 2,1 km/h (1 Bft) 97,87 %
25.09.2017 22:58 12,7 C 10,6 C 9,4 C 88 % 2 lf 1019,8 hPa 0,0 l/m 0 min 0 min 5 W/m 0,0 km/h (0 Bft) 91,49 %
25.09.2017 23:00 12,7 C 10,6 C 9,4 C 89 % 2 lf 1019,8 hPa 0,0 l/m 0 min 0 min 5 W/m 0,0 km/h (0 Bft) 95,74 %
25.09.2017 23:02 12,7 C 10,6 C 9,4 C 89 % 2 lf 1019,8 hPa 0,0 l/m 0 min 0 min 5 W/m 0,0 km/h (0 Bft) 95,74 %
25.09.2017 23:04 12,6 C 10,6 C 9,4 C 89 % 3 lf 1019,8 hPa 0,0 l/m 0 min 0 min 5 W/m 0,0 km/h (0 Bft) 95,74 %
25.09.2017 23:06 12,6 C 10,6 C 9,4 C 89 % 3 lf 1019,8 hPa 0,0 l/m 0 min 0 min 5 W/m 0,0 km/h (0 Bft) 100,00 %
25.09.2017 23:08 12,6 C 10,6 C 9,4 C 89 % 3 lf 1019,8 hPa 0,0 l/m 0 min 0 min 5 W/m 0,0 km/h (0 Bft) 93,62 %
25.09.2017 23:10 12,5 C 10,6 C 9,4 C 89 % 3 lf 1019,8 hPa 0,0 l/m 0 min 0 min 0 W/m 0,0 km/h (0 Bft) 97,87 %
25.09.2017 23:12 12,5 C 10,6 C 9,4 C 89 % 3 lf 1019,8 hPa 0,0 l/m 0 min 0 min 0 W/m 0,0 km/h (0 Bft) 97,87 %
25.09.2017 23:14 12,4 C 10,6 C 9,4 C 89 % 3 lf 1019,8 hPa 0,0 l/m 0 min 0 min 4 W/m 0,0 km/h (0 Bft) 97,87 %
25.09.2017 23:16 12,4 C 10,6 C 9,4 C 89 % 3 lf 1019,7 hPa 0,0 l/m 0 min 0 min 5 W/m 0,0 km/h (0 Bft) 95,65 %
25.09.2017 23:18 12,4 C 10,6 C 9,4 C 89 % 3 lf 1019,8 hPa 0,0 l/m 0 min 0 min 5 W/m 0,0 km/h (0 Bft) 93,62 %
25.09.2017 23:20 12,3 C 10,6 C 9,4 C 89 % 3 lf 1019,8 hPa 0,0 l/m 0 min 0 min 5 W/m 2,1 km/h (1 Bft) 95,74 %
25.09.2017 23:22 12,3 C 10,6 C 9,4 C 89 % 3 lf 1019,8 hPa 0,0 l/m 0 min 0 min 5 W/m 0,0 km/h (0 Bft) 100,00 %
25.09.2017 23:24 12,3 C 10,6 C 9,4 C 89 % 3 lf 1019,8 hPa 0,0 l/m 0 min 0 min 0 W/m 0,0 km/h (0 Bft) 97,87 %
25.09.2017 23:26 12,3 C 10,6 C 9,4 C 89 % 3 lf 1019,8 hPa 0,0 l/m 0 min 0 min 5 W/m 0,0 km/h (0 Bft) 97,87 %
25.09.2017 23:28 12,2 C 10,6 C 9,4 C 90 % 3 lf 1019,8 hPa 0,0 l/m 0 min 0 min 5 W/m 0,0 km/h (0 Bft) 97,83 %
25.09.2017 23:30 12,2 C 10,6 C 9,4 C 90 % 3 lf 1019,8 hPa 0,0 l/m 0 min 0 min 0 W/m 0,0 km/h (0 Bft) 97,87 %
25.09.2017 23:32 12,2 C 10,6 C 9,4 C 90 % 3 lf 1019,8 hPa 0,0 l/m 0 min 0 min 0 W/m 0,0 km/h (0 Bft) 97,87 %
25.09.2017 23:34 12,2 C 10,6 C 9,4 C 90 % 3 lf 1019,8 hPa 0,0 l/m 0 min 0 min 2 W/m 0,0 km/h (0 Bft) 95,74 %
25.09.2017 23:36 12,2 C 10,6 C 9,4 C 90 % 3 lf 1019,8 hPa 0,0 l/m 0 min 0 min 5 W/m 0,0 km/h (0 Bft) 95,74 %
25.09.2017 23:38 12,1 C 10,6 C 9,4 C 90 % 3 lf 1019,8 hPa 0,0 l/m 0 min 0 min 5 W/m 0,0 km/h (0 Bft) 95,74 %
25.09.2017 23:40 12,1 C 10,6 C 9,4 C 90 % 3 lf 1019,8 hPa 0,0 l/m 0 min 0 min 5 W/m 2,1 km/h (1 Bft) 100,00 %
25.09.2017 23:42 12,1 C 10,6 C 9,4 C 90 % 3 lf 1019,8 hPa 0,0 l/m 0 min 0 min 5 W/m 0,0 km/h (0 Bft) 97,87 %
25.09.2017 23:44 12,1 C 10,6 C 9,4 C 90 % 3 lf 1019,8 hPa 0,0 l/m 0 min 0 min 5 W/m 2,1 km/h (1 Bft) 97,87 %
25.09.2017 23:46 12,1 C 10,6 C 9,4 C 90 % 3 lf 1019,8 hPa 0,0 l/m 0 min 0 min 5 W/m 2,1 km/h (1 Bft) 100,00 %
25.09.2017 23:48 12,0 C 10,6 C 9,4 C 90 % 3 lf 1019,8 hPa 0,0 l/m 0 min 0 min 5 W/m 2,1 km/h (1 Bft) 97,87 %
25.09.2017 23:50 12,0 C 10,6 C 9,4 C 90 % 3 lf 1019,8 hPa 0,0 l/m 0 min 0 min 5 W/m 0,0 km/h (0 Bft) 91,49 %
25.09.2017 23:52 11,9 C 10,6 C 9,4 C 90 % 3 lf 1019,8 hPa 0,0 l/m 0 min 0 min 5 W/m 0,0 km/h (0 Bft) 97,83 %
25.09.2017 23:54 11,9 C 10,6 C 9,4 C 90 % 4 lf 1019,8 hPa 0,0 l/m 0 min 0 min 5 W/m 0,0 km/h (0 Bft) 97,87 %
25.09.2017 23:56 11,9 C 10,6 C 9,4 C 90 % 4 lf 1019,8 hPa 0,0 l/m 0 min 0 min 5 W/m 0,0 km/h (0 Bft) 93,62 %
25.09.2017 23:58 11,9 C 10,6 C 9,4 C 90 % 4 lf 1019,9 hPa 0,0 l/m 0 min 0 min 5 W/m 0,0 km/h (0 Bft) 97,87 %
_ Min-Zeit 06:28 03:26 04:56 16:36 10:32 16:24 - - - - 00:10 06:22
Minimum _ 9,6 C 8,3 C 7,2 C 68 % 0 lf 1018,9 hPa - - - - 0,0 km/h (0 Bft) 78,72 %
_ Max-Zeit 16:46 13:36 12:38 09:40 02:20 00:00 11:30 12:10 00:00 13:06 14:28 01:14
Maximum _ 20,3 C 31,1 C 23,3 C 98 % 15 lf 1021,7 hPa 0,2 l/m 4 min 0 min 858 W/m 20,9 km/h
O-NO (4 Bft)
100,00 %
Durchschnitt _ 14,3 C 15,1 C 12,6 C 86 % 6 lf 1020,0 hPa #0,2 l/m #7:58 h #0 min. 265 W/m 6,4 km/h (2 Bft) 93,98 %
© 2017 W. Hausmann